<- Previous Day | Today | Next Day ->

All Data for 22 February 2024

 

Time A - D Temp A - D Dew Point A - D Humidity A - D Pressure A - D Wind A - D Wind Dir Gust A - D Rain Rate A - D Rain Total
00:00 10.4 10.4 100 998.1 16.8 SE 16.8 0.0 0.0
00:01 10.4 10.4 100 998.1 16.8 SSW 18.3 0.0 0.0
00:02 10.4 10.4 100 998.4 12.1 S 18.3 0.0 0.0
00:03 10.4 10.4 100 998.3 17.4 SW 18.3 0.0 0.0
00:04 10.4 10.4 100 998.5 17.4 S 18.3 0.0 0.0
00:05 10.4 10.4 100 998.2 15.9 SW 18.3 0.0 0.0
00:06 10.4 10.4 100 998.4 17.4 SW 18.3 0.0 0.0
00:08 10.4 10.4 100 998.1 15.9 SW 18.3 0.0 0.0
00:09 10.4 10.4 100 997.9 15.9 S 18.3 0.0 0.0
00:10 10.4 10.4 100 998.2 15.9 SSE 18.3 0.0 0.0
00:11 10.4 10.4 100 998.0 18.3 SSE 18.3 0.0 0.0
00:12 10.4 10.4 100 997.9 15.2 S 18.3 0.0 0.0
00:13 10.4 10.4 100 998.0 10.7 SSW 18.3 0.0 0.0
00:14 10.4 10.4 100 997.9 19.0 S 19.0 0.0 0.0
00:15 10.4 10.4 100 998.0 20.6 SW 20.6 0.0 0.0
00:16 10.4 10.4 100 997.8 20.6 SW 20.6 0.0 0.0
00:17 10.4 10.4 100 997.8 19.7 S 20.6 0.0 0.0
00:18 10.4 10.4 100 997.5 19.7 SSW 20.6 0.0 0.0
00:19 10.4 10.4 100 997.4 16.8 SSW 20.6 0.0 0.0
00:20 10.4 10.4 100 997.4 15.9 SW 20.6 0.0 0.0
00:21 10.4 10.4 100 997.5 15.9 SW 20.6 0.0 0.0
00:22 10.4 10.4 100 997.4 15.9 SW 20.6 0.0 0.0
00:23 10.4 10.4 100 997.5 15.9 SW 20.6 0.0 0.0
00:24 10.4 10.4 100 997.6 19.7 SW 20.6 0.0 0.0
00:25 10.4 10.4 100 997.7 17.4 S 20.6 0.0 0.0
00:27 10.4 10.4 100 997.7 17.4 SW 19.7 0.0 0.0
00:28 10.4 10.4 100 997.5 17.4 S 19.7 0.0 0.0
00:29 10.4 10.4 100 997.5 17.4 S 19.7 0.0 0.0
00:30 10.4 10.4 100 997.5 18.3 S 19.7 0.0 0.0
00:31 10.4 10.4 100 997.7 19.7 SSW 19.7 0.0 0.0
00:32 10.4 10.4 100 997.6 14.5 SSW 19.7 0.0 0.0
00:33 10.4 10.4 100 997.6 15.9 SE 19.7 0.0 0.0
00:34 10.4 10.4 100 997.6 15.9 S 19.7 0.0 0.0
00:35 10.4 10.4 100 997.7 19.0 SW 19.7 0.0 0.0
00:36 10.4 10.4 100 997.5 19.0 S 19.7 0.0 0.0
00:37 10.4 10.4 100 997.3 19.0 S 19.7 0.0 0.0
00:40 10.4 10.4 100 997.2 18.3 SW 19.7 0.0 0.0
00:41 10.4 10.4 100 997.3 13.0 SW 19.7 0.0 0.0
00:42 10.4 10.4 100 997.2 13.6 SW 19.7 0.0 0.0
00:43 10.4 10.4 100 997.0 16.8 SW 19.7 0.0 0.0
00:44 10.4 10.4 100 997.1 25.1 SW 25.1 0.0 0.0
00:46 10.4 10.4 100 996.9 18.3 S 25.1 0.0 0.0
00:47 10.4 10.4 100 996.9 18.3 S 25.1 0.0 0.0
00:48 10.4 10.4 100 996.9 19.0 SSW 25.1 0.0 0.0
00:49 10.4 10.4 100 997.0 19.0 S 25.1 0.0 0.0
00:50 10.4 10.4 100 997.0 17.4 SW 25.1 0.0 0.0
00:51 10.4 10.4 100 997.0 16.8 SW 25.1 0.0 0.0
00:52 10.4 10.4 100 996.9 17.4 SW 25.1 0.0 0.0
00:53 10.4 10.4 100 996.9 17.4 S 25.1 0.0 0.0
00:54 10.4 10.4 100 996.8 21.3 SE 25.1 0.0 0.0
00:55 10.4 10.4 100 996.8 21.3 SSW 21.3 0.0 0.0
00:56 10.4 10.4 100 996.8 22.1 SSE 22.1 0.0 0.0
00:57 10.4 10.4 100 996.4 15.9 SSE 22.1 0.0 0.0
00:58 10.4 10.4 100 996.7 15.2 SW 22.1 0.0 0.0
00:59 10.4 10.4 100 996.8 16.8 S 22.1 0.0 0.0
01:00 10.4 10.4 100 996.6 16.8 S 22.1 0.0 0.0
01:01 10.4 10.4 100 996.4 16.8 S 22.1 0.0 0.0
01:02 10.4 10.4 100 996.6 16.8 S 22.1 0.0 0.0
01:03 10.4 10.4 100 996.7 16.8 S 22.1 0.0 0.0
01:05 10.4 10.4 100 996.5 16.8 S 22.1 0.0 0.0
01:06 10.4 10.4 100 996.4 16.8 SSW 19.0 0.0 0.0
01:07 10.4 10.4 100 996.4 16.8 SSW 19.0 0.0 0.0
01:08 10.4 10.4 100 996.3 16.8 S 17.4 0.0 0.0
01:09 10.4 10.4 100 996.4 22.1 SW 22.1 0.0 0.0
01:10 10.4 10.4 100 996.3 17.4 SW 22.1 0.0 0.0
01:11 10.4 10.4 100 996.3 17.4 S 22.1 0.0 0.0
01:12 10.4 10.4 100 996.1 19.7 SW 22.1 0.0 0.0
01:13 10.4 10.4 100 996.0 15.2 SW 22.1 0.0 0.0
01:14 10.4 10.4 100 996.2 15.9 SW 22.1 0.0 0.0
01:15 10.4 10.4 100 996.2 17.4 SW 22.1 0.0 0.0
01:16 10.4 10.4 100 996.0 18.3 SW 22.1 0.0 0.0
01:17 10.4 10.4 100 996.0 16.8 WSW 22.1 0.0 0.0
01:18 10.4 10.4 100 996.0 18.3 SSW 22.1 0.0 0.0
01:19 10.4 10.4 100 996.1 19.0 SE 20.6 0.0 0.0
01:20 10.4 10.4 100 995.8 21.3 S 21.3 0.0 0.0
01:21 10.4 10.4 100 995.9 23.5 S 23.5 0.0 0.0
01:22 10.4 10.4 100 995.7 15.9 S 23.5 0.0 0.0
01:24 10.4 10.4 100 995.6 19.0 SW 23.5 0.0 0.0
01:25 10.4 10.4 100 995.4 22.8 S 23.5 0.0 0.0
01:26 10.4 10.4 100 995.4 22.8 S 23.5 0.0 0.0
01:27 10.4 10.4 100 995.7 24.4 SW 24.4 0.0 0.0
01:28 10.4 10.4 100 995.6 21.3 S 24.4 0.0 0.0
01:29 10.4 10.4 100 995.7 22.8 SW 24.4 0.0 0.0
01:30 10.4 10.4 100 995.5 22.8 SW 24.4 0.0 0.0
01:31 10.4 10.4 100 995.8 20.6 SSW 24.4 0.0 0.0
01:32 10.4 10.4 100 995.5 19.7 SSE 24.4 0.0 0.0
01:33 10.4 10.4 100 995.7 16.8 SW 24.4 0.0 0.0
01:34 10.4 10.4 100 995.7 18.3 S 24.4 0.0 0.0
01:35 10.4 10.4 100 995.6 19.7 S 24.4 0.0 0.0
01:36 10.4 10.4 100 995.5 18.3 SW 24.4 0.0 0.0
01:37 10.4 10.4 100 995.4 17.4 SE 22.8 0.0 0.0
01:38 10.4 10.4 100 995.4 18.3 SW 22.8 0.0 0.0
01:39 10.4 10.4 100 995.5 18.3 SE 22.8 0.0 0.0
01:40 10.4 10.4 100 995.3 25.1 W 25.1 0.0 0.0
01:41 10.4 10.4 100 995.2 20.6 S 25.1 0.0 0.0
01:43 10.4 10.4 100 995.0 14.5 S 25.1 0.0 0.0
01:44 10.4 10.4 100 995.2 24.4 SW 25.1 0.0 0.0
01:45 10.4 10.4 100 994.9 24.4 S 25.1 0.0 0.0
01:46 10.4 10.4 100 995.1 21.3 SE 25.1 0.0 0.0
01:47 10.4 10.4 100 995.1 21.3 S 25.1 0.0 0.0
01:48 10.4 10.4 100 995.1 19.7 S 25.1 0.0 0.0
01:49 10.4 10.4 100 995.2 15.9 S 25.1 0.0 0.0
01:50 10.4 10.4 100 994.8 15.2 S 25.1 0.0 0.0
01:51 10.4 10.4 100 994.9 15.9 S 24.4 0.0 0.0
01:52 10.4 10.4 100 995.0 13.0 S 24.4 0.0 0.0
01:53 10.4 10.4 100 994.9 16.8 SW 24.4 0.0 0.0
01:54 10.4 10.4 100 994.8 16.8 SW 24.4 0.0 0.0
01:55 10.4 10.4 100 994.8 14.5 S 21.3 0.0 0.0
01:56 10.4 10.4 100 994.6 19.7 WSW 21.3 0.0 0.0
01:57 10.4 10.4 100 994.8 24.4 S 24.4 0.0 0.0
01:58 10.4 10.4 100 994.7 24.4 S 24.4 0.0 0.0
01:59 10.4 10.4 100 994.7 16.8 SW 24.4 0.0 0.0
02:00 10.4 10.4 100 994.6 16.8 SW 24.4 0.0 0.0
02:02 10.4 10.4 100 994.4 19.7 SW 24.4 0.0 0.0
02:03 10.4 10.4 100 994.4 16.8 S 24.4 0.0 0.0
02:04 10.4 10.4 100 994.5 16.8 SSW 24.4 0.0 0.0
02:05 10.4 10.4 100 994.4 19.0 S 24.4 0.0 0.0
02:06 10.4 10.4 100 994.3 19.0 SSE 24.4 0.0 0.0
02:07 10.4 10.4 100 994.5 14.5 S 24.4 0.0 0.0
02:08 10.4 10.4 100 994.4 17.4 SW 24.4 0.0 0.0
02:09 10.4 10.4 100 994.4 17.4 SW 21.3 0.0 0.0
02:10 10.4 10.4 100 994.3 15.9 S 21.3 0.0 0.0
02:11 10.4 10.4 100 994.5 15.9 S 21.3 0.0 0.0
02:12 10.4 10.4 100 994.4 14.5 S 19.7 0.0 0.0
02:13 10.4 10.4 100 994.4 13.0 SW 19.0 0.0 0.0
02:14 10.4 10.4 100 994.2 15.9 SSE 19.0 0.0 0.0
02:15 10.4 10.4 100 994.2 13.6 SW 19.0 0.0 0.0
02:16 10.4 10.4 100 994.2 13.6 ENE 17.4 0.0 0.0
02:17 10.4 10.4 100 994.0 15.9 S 17.4 0.0 0.0
02:18 10.4 10.4 100 994.0 16.8 S 17.4 0.0 0.0
02:19 10.4 10.4 100 994.3 16.8 SW 16.8 0.0 0.0
02:20 10.4 10.4 100 994.1 19.0 SW 19.0 0.0 0.0
02:22 10.4 10.4 100 994.1 16.8 SE 19.0 0.0 0.0
02:23 10.4 10.4 100 994.1 16.8 SE 19.0 0.0 0.0
02:24 10.4 10.4 100 993.9 16.8 S 19.0 0.0 0.0
02:25 10.4 10.4 100 993.8 19.0 S 19.0 0.0 0.0
02:26 10.4 10.4 100 994.0 21.3 SW 21.3 0.0 0.0
02:27 10.4 10.4 100 993.8 15.9 S 21.3 0.0 0.0
02:28 10.4 10.4 100 993.6 19.7 SE 21.3 0.0 0.0
02:29 10.4 10.4 100 993.9 15.9 S 21.3 0.0 0.0
02:30 10.4 10.4 100 993.8 24.4 S 24.4 0.0 0.0
02:31 10.4 10.4 100 993.7 24.4 SW 24.4 0.0 0.0
02:32 10.4 10.4 100 993.7 17.4 S 24.4 0.0 0.0
02:33 10.4 10.4 100 993.6 16.8 SW 24.4 0.0 0.0
02:34 10.4 10.4 100 993.7 18.3 S 24.4 0.0 0.0
02:35 10.4 10.4 100 993.7 19.7 SW 24.4 0.0 0.0
02:36 10.4 10.4 100 993.7 16.8 SW 24.4 0.0 0.0
02:37 10.4 10.4 100 993.5 19.7 S 24.4 0.0 0.0
02:38 10.4 10.4 100 993.7 19.7 S 24.4 0.0 0.0
02:40 10.4 10.4 100 993.4 15.9 S 24.4 0.0 0.0
02:41 10.4 10.4 100 993.2 20.6 W 20.6 0.0 0.0
02:42 10.4 10.4 100 993.2 20.6 W 20.6 0.0 0.0
02:43 10.4 10.4 100 993.4 20.6 W 20.6 0.0 0.0
02:44 10.4 10.4 100 993.4 18.3 SW 20.6 0.0 0.0
02:45 10.4 10.4 100 993.2 16.8 S 20.6 0.0 0.1
02:46 10.4 10.4 100 993.4 18.3 S 20.6 0.8 0.1
02:47 10.4 10.4 100 993.3 19.7 S 20.6 0.8 0.1
02:48 10.4 10.4 100 993.2 19.0 SE 20.6 0.8 0.1
02:49 10.4 10.4 100 993.1 14.5 SW 20.6 0.8 0.1
02:50 10.4 10.4 100 993.3 23.5 SSE 23.5 0.8 0.1
02:51 10.4 10.4 100 993.1 23.5 SW 23.5 0.0 0.1
02:52 10.4 10.4 100 993.0 17.4 SSE 23.5 0.0 0.1
02:53 10.4 10.4 100 992.8 18.3 SW 23.5 0.0 0.1
02:54 10.4 10.4 100 993.0 20.6 S 23.5 0.0 0.1
02:55 10.4 10.4 100 992.7 21.3 SW 23.5 0.0 0.1
02:56 10.4 10.4 100 993.0 16.8 SW 23.5 0.0 0.1
02:57 10.4 10.4 100 992.9 21.3 SW 23.5 0.0 0.1
02:59 10.4 10.4 100 992.9 17.4 SW 23.5 0.0 0.1
03:00 10.4 10.4 100 992.7 17.4 SW 23.5 0.0 0.1
03:01 10.4 10.4 100 992.5 17.4 SW 21.3 0.0 0.1
03:02 10.4 10.4 100 992.6 17.4 SW 21.3 0.0 0.1
03:03 10.4 10.4 100 992.4 17.4 SW 21.3 0.0 0.1
03:04 10.4 10.4 100 992.5 17.4 SW 21.3 0.0 0.1
03:05 10.4 10.4 100 992.4 17.4 SW 21.3 0.0 0.1
03:06 10.4 10.4 100 992.4 17.4 SW 21.3 0.0 0.1
03:07 10.4 10.4 100 992.3 16.8 SSW 21.3 0.0 0.1
03:08 10.4 10.4 100 992.2 15.2 S 21.3 0.0 0.1
03:09 10.4 10.4 100 992.4 18.3 SW 18.3 0.0 0.1
03:10 10.4 10.4 100 992.1 22.1 S 22.1 0.0 0.1
03:11 10.4 10.4 100 992.0 22.1 SSW 22.1 0.0 0.1
03:12 10.4 10.4 100 992.1 19.7 S 22.1 0.0 0.1
03:13 10.4 10.4 100 992.3 16.8 S 22.1 0.0 0.1
03:14 10.4 10.4 100 992.1 20.6 SW 22.1 0.0 0.1
03:15 10.4 10.4 100 991.9 20.6 SW 22.1 0.0 0.1
03:16 10.4 10.4 100 992.0 21.3 S 22.1 0.0 0.1
03:18 10.4 10.4 100 991.9 19.7 S 22.1 0.0 0.1
03:19 10.4 10.4 100 991.9 19.7 S 22.1 0.0 0.1
03:20 10.4 10.4 100 991.9 17.4 W 22.1 0.0 0.1
03:21 10.4 10.4 100 991.9 16.8 S 22.1 0.0 0.1
03:22 10.4 10.4 100 991.9 18.3 W 21.3 0.0 0.1
03:23 10.4 10.4 100 991.6 16.8 S 21.3 0.0 0.1
03:24 10.4 10.4 100 991.8 14.5 S 21.3 0.0 0.1
03:25 10.4 10.4 100 991.7 15.2 SE 21.3 0.0 0.1
03:26 10.4 10.4 100 991.7 20.6 S 21.3 0.0 0.1
03:27 10.4 10.4 100 991.6 17.4 S 20.6 0.0 0.1
03:28 10.4 10.4 100 991.5 21.3 S 21.3 0.0 0.1
03:29 10.4 10.4 100 991.4 19.7 S 21.3 0.0 0.1
03:30 10.4 10.4 100 991.4 19.7 S 21.3 0.0 0.1
03:31 10.4 10.4 100 991.4 16.8 SW 21.3 0.0 0.1
03:32 10.4 10.4 100 991.4 20.6 S 21.3 0.0 0.1
03:33 10.4 10.4 100 991.5 15.9 SE 21.3 0.0 0.1
03:34 10.4 10.4 100 991.5 14.5 S 21.3 0.0 0.1
03:35 10.4 10.4 100 991.2 14.5 S 21.3 0.0 0.1
03:37 10.4 10.4 100 991.1 21.3 S 21.3 0.0 0.1
03:38 10.4 10.4 100 991.1 21.3 S 21.3 0.0 0.1
03:39 10.4 10.4 100 991.0 19.7 SSW 21.3 0.0 0.1
03:40 10.4 10.4 100 991.1 19.7 SW 21.3 0.0 0.1
03:41 10.4 10.4 100 991.0 22.1 SSE 22.1 0.0 0.1
03:42 10.4 10.4 100 990.9 19.0 S 22.1 0.0 0.1
03:43 10.4 10.4 100 990.9 15.9 SE 22.1 0.0 0.1
03:44 10.4 10.4 100 990.9 16.8 S 22.1 0.0 0.1
03:45 10.4 10.4 100 990.8 18.3 SSW 22.1 0.0 0.1
03:46 10.4 10.4 100 990.8 19.0 SW 22.1 0.0 0.1
03:47 10.4 10.4 100 990.8 22.1 SSE 22.1 0.0 0.1
03:48 10.4 10.4 100 990.7 19.0 S 22.8 0.0 0.1
03:49 10.4 10.4 100 990.5 13.6 S 22.8 0.0 0.1
03:50 10.4 10.4 100 990.5 15.2 S 22.8 0.0 0.1
03:51 10.4 10.4 100 990.6 15.2 SE 22.8 0.0 0.1
03:52 10.4 10.4 100 990.6 16.8 SE 22.8 0.0 0.1
03:53 10.4 10.4 100 990.7 21.3 S 22.8 0.0 0.1
03:54 10.4 10.4 100 990.5 19.0 SSW 22.8 0.0 0.1
03:56 10.4 10.4 100 990.5 19.7 SE 22.8 0.0 0.1
03:57 10.4 10.4 100 990.4 18.3 S 22.8 0.0 0.1
03:58 10.4 10.4 100 990.4 16.8 S 21.3 0.0 0.1
03:59 10.4 10.4 100 990.5 14.5 SW 21.3 0.0 0.1
04:00 10.4 10.4 100 990.4 16.8 SW 21.3 0.0 0.1
04:01 10.4 10.4 100 990.2 19.0 S 21.3 0.0 0.1
04:02 10.4 10.4 100 990.4 19.0 S 21.3 0.0 0.1
04:03 10.4 10.4 100 990.2 19.7 SW 21.3 0.0 0.1
04:04 10.4 10.4 100 990.2 19.7 S 19.7 0.0 0.1
04:05 10.5 10.5 100 990.4 19.0 SW 19.7 0.0 0.1
04:06 10.5 10.5 100 990.2 19.0 SW 19.7 0.0 0.1
04:07 10.5 10.5 100 990.1 15.9 WSW 19.7 0.0 0.1
04:08 10.5 10.5 100 990.1 27.3 S 27.3 0.0 0.1
04:09 10.5 10.5 100 990.0 22.8 SSW 27.3 0.0 0.1
04:10 10.5 10.5 100 989.8 18.3 SW 27.3 0.0 0.1
04:11 10.5 10.5 100 989.9 16.8 SE 27.3 0.0 0.1
04:12 10.5 10.5 100 990.0 20.6 WSW 27.3 0.0 0.1
04:13 10.5 10.5 100 990.0 19.7 S 27.3 0.0 0.1
04:15 10.5 10.5 100 989.9 20.6 SW 27.3 0.0 0.1
04:16 10.5 10.5 100 989.7 22.1 SW 27.3 0.0 0.1
04:17 10.5 10.5 100 989.9 23.5 S 27.3 0.0 0.1
04:18 10.5 10.5 100 989.8 25.1 S 27.3 0.0 0.1
04:19 10.5 10.5 100 989.8 25.1 S 25.1 0.0 0.1
04:20 10.5 10.5 100 989.7 27.3 WSW 27.3 0.0 0.1
04:21 10.5 10.5 100 989.6 27.3 WSW 27.3 0.0 0.1
04:22 10.5 10.5 100 989.4 26.6 S 27.3 0.0 0.1
04:23 10.5 10.5 100 989.6 19.0 WSW 27.3 0.0 0.1
04:24 10.5 10.5 100 989.6 20.6 WSW 27.3 0.0 0.1
04:25 10.5 10.5 100 989.7 25.9 SE 27.3 0.0 0.1
04:26 10.5 10.5 100 989.4 25.1 S 27.3 0.0 0.1
04:27 10.5 10.5 100 989.5 20.6 S 27.3 0.0 0.1
04:28 10.5 10.5 100 989.6 20.6 S 27.3 0.0 0.1
04:29 10.6 10.6 100 989.6 25.9 S 27.3 0.0 0.1
04:30 10.6 10.6 100 989.3 25.9 S 27.3 0.0 0.1
04:31 10.6 10.6 100 989.3 25.9 S 26.6 0.0 0.1
04:32 10.6 10.6 100 989.3 22.8 S 25.9 0.0 0.1
04:34 10.6 10.6 100 989.4 19.7 S 25.9 0.0 0.1
04:35 10.6 10.6 100 989.4 19.7 S 25.9 0.0 0.1
04:36 10.6 10.6 100 989.0 21.3 NE 25.9 0.8 0.1
04:37 10.6 10.6 100 989.2 19.7 W 25.9 0.8 0.1
04:38 10.6 10.6 100 989.1 25.1 S 25.9 0.8 0.1
04:39 10.6 10.6 100 989.1 22.1 WSW 25.9 0.8 0.1
04:40 10.6 10.6 100 989.1 24.4 S 25.9 0.8 0.1
04:41 10.6 10.6 100 989.0 24.4 S 25.9 0.0 0.1
04:42 10.6 10.6 100 989.2 20.6 S 25.1 0.0 0.1
04:43 10.7 10.7 100 989.1 21.3 S 25.1 0.0 0.1
04:44 10.7 10.7 100 988.9 23.5 S 25.1 0.0 0.1
04:45 10.7 10.7 100 988.9 24.4 S 25.1 0.0 0.1
04:46 10.7 10.7 100 988.8 24.4 S 25.1 0.0 0.1
04:47 10.7 10.7 100 989.0 23.5 S 25.1 0.0 0.1
04:48 10.7 10.7 100 989.0 21.3 SSW 24.4 0.0 0.1
04:49 10.7 10.7 100 988.8 21.3 SSW 24.4 0.0 0.1
04:50 10.7 10.7 100 988.7 21.3 SSW 24.4 0.0 0.1
04:51 10.7 10.7 100 988.8 22.8 WSW 24.4 0.0 0.2
04:53 10.7 10.7 100 988.4 19.0 S 24.4 0.8 0.2
04:54 10.7 10.7 100 988.4 19.0 S 24.4 0.8 0.2
04:55 10.7 10.7 100 988.8 19.0 S 24.4 0.8 0.2
04:56 10.8 10.8 100 988.6 21.3 WSW 24.4 0.8 0.2
04:57 10.8 10.8 100 988.4 21.3 WSW 23.5 0.0 0.2
04:58 10.8 10.8 100 988.4 21.3 WSW 22.8 0.0 0.2
04:59 10.8 10.8 100 988.7 27.3 WSW 27.3 0.8 0.3
05:00 10.8 10.8 100 988.6 27.3 WSW 27.3 0.8 0.3
05:01 10.8 10.8 100 988.3 27.3 WSW 27.3 0.8 0.3
05:02 10.8 10.8 100 988.4 27.3 WSW 27.3 0.8 0.3
05:03 10.8 10.8 100 988.2 27.3 WSW 27.3 0.8 0.3
05:04 10.8 10.8 100 988.4 27.3 WSW 27.3 0.0 0.3
05:05 10.8 10.8 100 988.1 27.3 WSW 27.3 0.0 0.3
05:06 10.8 10.8 100 988.1 16.8 S 27.3 0.0 0.3
05:07 10.8 10.8 100 988.2 14.5 SSW 27.3 0.0 0.3
05:08 10.8 10.8 100 988.0 19.0 S 27.3 0.0 0.3
05:09 10.8 10.8 100 988.1 21.3 S 27.3 0.0 0.3
05:10 10.8 10.8 100 987.9 21.3 S 27.3 0.0 0.3
05:12 10.8 10.8 100 988.1 24.4 S 27.3 0.0 0.3
05:13 10.8 10.8 100 988.0 24.4 S 27.3 0.0 0.3
05:14 10.8 10.8 100 988.0 24.4 S 27.3 0.0 0.3
05:15 10.8 10.8 100 988.0 24.4 S 27.3 0.0 0.3
05:16 10.8 10.8 100 987.8 24.4 S 24.4 0.0 0.3
05:17 10.8 10.8 100 987.9 24.4 S 24.4 0.0 0.3
05:18 10.7 10.7 100 987.7 24.4 S 24.4 0.0 0.3
05:19 10.7 10.7 100 987.7 22.8 E 24.4 0.0 0.3
05:20 10.7 10.7 100 987.7 27.3 SW 27.3 0.0 0.3
05:21 10.7 10.7 100 987.4 27.3 SW 27.3 0.0 0.3
05:22 10.7 10.7 100 987.7 27.3 SW 27.3 0.0 0.3
05:23 10.7 10.7 100 987.5 23.5 WSW 27.3 0.0 0.3
05:24 10.7 10.7 100 987.4 22.1 E 27.3 0.0 0.3
05:25 10.7 10.7 100 987.7 22.1 E 27.3 0.0 0.3
05:26 10.7 10.7 100 987.5 22.1 E 27.3 0.0 0.3
05:27 10.7 10.7 100 987.3 22.1 E 27.3 0.0 0.3
05:28 10.7 10.7 100 987.5 27.3 S 27.3 0.0 0.3
05:29 10.7 10.7 100 987.5 27.3 S 27.3 0.8 0.3
05:31 10.7 10.7 100 987.6 27.3 S 27.3 0.8 0.3
05:32 10.7 10.7 100 987.4 29.8 WSW 29.8 0.8 0.4
05:33 10.7 10.7 100 987.6 23.5 WSW 29.8 1.5 0.6
05:34 10.7 10.7 100 987.3 28.2 S 29.8 3.8 0.6
05:35 10.7 10.7 100 987.6 24.4 WSW 29.8 4.5 0.7
05:36 10.6 10.6 100 987.9 25.9 SW 29.8 6.8 1.0
05:37 10.6 10.6 100 987.9 29.8 WSW 29.8 8.3 1.1
05:38 10.4 10.4 100 987.8 24.4 WSW 29.8 8.3 1.1
05:39 10.3 10.3 100 987.9 28.2 S 29.8 5.3 1.1
05:40 10.0 10.0 100 987.6 25.1 WSW 29.8 5.3 1.1
05:41 9.9 9.9 100 987.9 21.3 WSW 29.8 3.0 1.1
05:42 9.8 9.8 100 987.8 15.9 W 29.8 1.5 1.1
05:43 9.7 9.7 100 987.8 15.9 W 29.8 0.8 1.2
05:44 9.7 9.7 100 987.8 15.9 W 29.8 1.5 1.2
05:45 9.5 9.5 100 988.0 13.6 WSW 29.8 0.8 1.2
05:46 9.4 9.4 100 987.9 10.7 SW 29.8 0.8 1.2
05:47 9.4 9.4 100 988.0 10.7 SW 28.2 0.8 1.2
05:48 9.2 9.2 100 988.1 15.2 SW 28.2 0.8 1.3
05:50 9.0 9.0 100 988.2 15.9 SW 21.3 0.8 1.3
05:51 9.0 9.0 100 988.2 15.9 SW 21.3 0.8 1.3
05:52 8.9 8.9 100 988.2 14.5 W 21.3 0.8 1.3
05:53 8.8 8.8 100 988.3 13.6 NW 16.8 0.8 1.3
05:54 8.8 8.8 100 988.2 13.6 NW 16.8 0.0 1.3
05:55 8.7 8.7 100 988.0 13.6 W 16.8 0.8 1.3
05:56 8.6 8.6 100 988.0 13.6 SW 16.8 1.5 1.4
05:57 8.6 8.6 100 987.6 13.6 SW 16.8 1.5 1.4
05:58 8.6 8.6 100 987.6 13.6 SW 16.8 1.5 1.4
05:59 8.5 8.5 100 987.3 9.8 W 16.8 3.0 1.5
06:00 8.4 8.4 100 987.7 7.6 WNW 15.9 2.3 1.6
06:01 8.3 8.3 100 987.4 6.9 NW 14.5 3.0 1.6
06:02 8.3 8.3 100 987.4 6.9 NW 14.5 3.0 1.6
06:03 8.3 8.3 100 987.5 6.9 NW 13.6 3.0 1.6
06:04 8.2 8.2 100 987.3 6.0 SW 13.6 1.5 1.7
06:05 8.2 8.2 100 987.3 6.0 SW 13.6 2.3 1.7
06:06 8.2 8.2 100 987.4 6.0 SW 13.6 0.8 1.7
06:07 8.1 8.1 100 987.4 6.0 SW 13.6 0.8 1.7
06:09 8.1 8.1 100 987.5 7.6 SW 10.7 0.8 1.7
06:10 8.1 8.1 100 987.5 7.6 SW 7.6 0.0 1.7
06:11 8.1 8.1 100 987.4 7.6 SW 7.6 0.0 1.7
06:12 8.0 8.0 100 987.4 5.4 W 7.6 0.0 1.7
06:13 8.0 8.0 100 987.3 5.4 W 7.6 0.0 1.7
06:14 8.0 8.0 100 987.4 5.4 NW 7.6 0.0 1.7
06:15 8.0 8.0 100 987.4 5.4 NW 7.6 0.0 1.7
06:16 8.0 8.0 100 987.3 5.4 N 7.6 0.0 1.7
06:17 8.0 8.0 100 987.3 5.4 N 7.6 0.0 1.7
06:18 8.0 8.0 100 987.3 4.5 W 7.6 0.0 1.7
06:19 8.0 8.0 100 987.3 4.5 SW 7.6 0.0 1.7
06:20 8.0 8.0 100 987.2 4.5 SW 7.6 0.0 1.7
06:21 8.0 8.0 100 987.1 4.5 WNW 7.6 0.0 1.8
06:22 8.0 8.0 100 987.0 4.5 WNW 5.4 0.8 1.8
06:23 7.9 7.9 100 987.3 7.6 NW 7.6 0.8 1.8
06:24 7.9 7.9 100 987.1 5.4 W 7.6 0.8 1.8
06:25 7.9 7.9 100 987.3 6.0 W 7.6 0.8 1.8
06:26 7.9 7.9 100 987.1 7.6 N 7.6 0.8 1.8
06:28 7.9 7.9 100 986.7 5.4 W 7.6 0.0 1.8
06:29 7.9 7.9 100 986.9 5.4 W 7.6 0.0 1.8
06:30 7.9 7.9 100 986.8 4.5 W 7.6 0.0 1.8
06:31 7.9 7.9 100 987.0 5.4 SW 7.6 0.0 1.8
06:32 7.9 7.9 100 986.4 4.5 NW 7.6 0.0 1.8
06:33 7.9 7.9 100 986.4 3.1 W 7.6 0.8 1.8
06:34 7.9 7.9 100 986.5 3.8 SW 7.6 1.5 1.9
06:35 7.9 7.9 100 986.6 3.8 W 7.6 1.5 1.9
06:36 7.9 7.9 100 986.5 4.5 NW 7.6 1.5 1.9
06:37 7.9 7.9 100 986.4 5.4 SW 6.0 1.5 1.9
06:38 7.9 7.9 100 986.4 5.4 SW 5.4 0.8 1.9
06:39 7.9 7.9 100 986.5 4.5 W 5.4 0.0 1.9
06:40 7.9 7.9 100 986.2 4.5 W 5.4 0.0 1.9
06:41 7.8 7.8 100 986.2 5.4 SW 5.4 0.0 1.9
06:42 7.8 7.8 100 986.3 3.8 WSW 5.4 0.0 1.9
06:43 7.8 7.8 100 986.1 3.8 W 5.4 0.0 1.9
06:44 7.8 7.8 100 986.2 3.8 NW 5.4 0.0 1.9
06:45 7.8 7.8 100 986.2 2.2 SW 5.4 0.0 1.9
06:47 7.8 7.8 100 986.1 1.6 W 5.4 0.0 1.9
06:48 7.8 7.8 100 985.9 2.2 WNW 5.4 0.0 1.9
06:49 7.8 7.8 100 985.9 1.6 W 5.4 0.0 1.9
06:50 7.8 7.8 100 985.8 1.6 N 5.4 0.0 1.9
06:51 7.8 7.8 100 985.6 3.1 W 5.4 0.0 1.9
06:52 7.8 7.8 100 985.5 3.1 NW 3.8 0.0 1.9
06:53 7.8 7.8 100 985.4 1.6 N 3.8 0.0 1.9
06:54 7.8 7.8 100 985.3 1.6 NW 3.8 0.0 1.9
06:55 7.8 7.8 100 985.4 1.6 NW 3.1 0.0 1.9
06:56 7.8 7.8 100 985.1 0.0 NW 3.1 0.0 1.9
06:57 7.8 7.8 100 985.2 0.0 NW 3.1 0.0 1.9
06:58 7.8 7.8 100 985.0 0.0 NW 3.1 0.0 1.9
06:59 7.8 7.8 100 985.1 0.0 NW 3.1 0.0 1.9
07:00 7.8 7.8 100 985.3 0.0 NW 3.1 0.0 1.9
07:01 7.8 7.8 100 985.2 0.0 NW 3.1 0.0 1.9
07:02 7.8 7.8 100 985.0 0.0 NW 1.6 0.0 1.9
07:03 7.8 7.8 100 985.1 0.0 NW 1.6 0.0 1.9
07:04 7.8 7.8 100 985.1 0.0 NW 1.6 0.0 1.9
07:06 7.7 7.7 100 985.2 0.7 W 0.7 0.0 1.9
07:07 7.7 7.7 100 985.2 0.7 W 0.7 0.0 1.9
07:08 7.7 7.7 100 985.2 0.0 W 0.7 0.0 1.9
07:09 7.6 7.6 100 985.4 0.0 W 0.7 0.0 1.9
07:10 7.6 7.6 100 985.3 1.6 SE 1.6 0.0 1.9
07:11 7.6 7.6 100 985.2 1.6 S 1.6 0.0 1.9
07:12 7.6 7.6 100 985.3 1.6 SSE 1.6 0.0 1.9
07:13 7.6 7.6 100 985.2 1.6 S 1.6 0.0 1.9
07:14 7.6 7.6 100 985.3 1.6 SE 1.6 0.0 1.9
07:15 7.6 7.6 100 985.3 1.6 S 1.6 0.0 1.9
07:16 7.5 7.5 100 985.5 2.2 S 2.2 0.0 1.9
07:17 7.5 7.5 100 985.7 1.6 SSW 2.2 0.0 1.9
07:18 7.5 7.5 100 985.5 1.6 S 2.2 0.0 1.9
07:19 7.5 7.5 100 985.5 2.2 S 2.2 0.0 1.9
07:20 7.5 7.5 100 985.4 3.1 SE 3.1 0.0 1.9
07:21 7.4 7.4 100 985.4 2.2 S 3.1 0.0 1.9
07:22 7.4 7.4 100 985.2 2.2 S 3.1 0.0 1.9
07:23 7.4 7.4 100 985.2 3.1 S 3.1 0.0 1.9
07:25 7.4 7.4 100 985.2 2.2 SE 3.1 0.0 1.9
07:26 7.4 7.4 100 985.2 2.2 SE 3.1 0.0 1.9
07:27 7.4 7.4 100 984.9 2.2 S 3.1 0.0 1.9
07:28 7.5 7.5 100 985.1 2.2 SE 3.1 0.0 1.9
07:29 7.5 7.5 100 985.0 3.1 SW 3.1 0.0 1.9
07:30 7.5 7.5 100 984.9 3.1 S 3.1 0.0 1.9
07:31 7.5 7.5 100 985.0 2.2 SE 3.1 0.0 1.9
07:32 7.5 7.5 100 985.1 2.2 S 3.1 0.0 1.9
07:33 7.5 7.5 100 984.9 2.2 NW 3.1 0.0 1.9
07:34 7.5 7.5 100 985.0 1.6 SSE 3.1 0.0 1.9
07:35 7.5 7.5 100 984.9 2.2 SE 3.1 0.0 1.9
07:36 7.6 7.6 100 984.9 1.6 SE 3.1 0.0 1.9
07:37 7.6 7.6 100 984.7 1.6 N 3.1 0.0 1.9
07:38 7.6 7.6 100 984.6 0.7 N 3.1 0.0 1.9
07:39 7.6 7.6 100 984.7 0.7 N 3.1 0.0 1.9
07:40 7.6 7.6 100 984.7 0.7 N 2.2 0.0 1.9
07:41 7.6 7.6 100 984.8 0.7 N 2.2 0.0 1.9
07:42 7.6 7.6 100 984.6 2.2 SE 2.2 0.0 1.9
07:44 7.6 7.6 100 984.7 1.6 SE 2.2 0.0 1.9
07:45 7.6 7.6 100 984.6 2.2 SSE 2.2 0.0 1.9
07:46 7.6 7.6 100 984.5 3.1 S 3.1 0.0 1.9
07:47 7.6 7.6 100 984.4 3.8 E 3.8 0.0 1.9
07:48 7.6 7.6 100 984.3 3.1 SW 3.8 0.0 1.9
07:49 7.6 7.6 100 984.2 3.1 N 3.8 0.0 1.9
07:50 7.6 7.6 100 984.4 3.1 SSE 3.8 0.0 1.9
07:51 7.6 7.6 100 984.3 3.1 NE 3.8 0.0 1.9
07:52 7.6 7.6 100 984.4 3.1 S 3.8 0.0 1.9
07:53 7.6 7.6 100 984.6 2.2 W 3.8 0.0 1.9
07:54 7.6 7.6 100 984.5 2.2 SSE 3.8 0.0 1.9
07:55 7.7 7.7 100 984.6 3.1 S 3.8 0.8 2.0
07:56 7.7 7.7 100 984.4 3.1 SSW 3.8 0.8 2.0
07:57 7.7 7.7 100 984.6 1.6 S 3.8 0.8 2.0
07:58 7.7 7.7 100 984.8 0.7 W 3.8 1.5 2.0
07:59 7.7 7.7 100 984.8 1.6 NW 3.8 1.5 2.1
08:00 7.7 7.7 100 984.6 0.0 NW 3.8 2.3 2.1
08:01 7.7 7.7 100 984.7 0.7 NW 3.8 2.3 2.3
08:03 7.7 7.7 100 984.5 0.0 NW 3.8 4.5 2.5
08:04 7.7 7.7 100 984.4 2.2 NW 3.8 6.0 2.6
08:05 7.7 7.7 100 984.6 3.1 NW 3.1 6.0 2.8
08:06 7.7 7.7 100 984.4 1.6 N 3.1 8.3 2.8
08:07 7.7 7.7 100 984.6 1.6 N 3.1 6.8 2.9
08:08 7.7 7.7 100 984.3 3.8 N 3.8 8.3 3.1
08:09 7.7 7.7 100 984.4 3.8 N 3.8 7.6 3.3
08:10 7.7 7.7 100 984.3 3.8 W 3.8 9.1 3.4
08:11 7.7 7.7 100 984.4 4.5 N 4.5 8.3 3.5
08:12 7.7 7.7 100 984.3 4.5 N 4.5 8.3 3.7
08:13 7.7 7.7 100 984.4 5.4 N 5.4 6.8 3.8
08:14 7.8 7.8 100 984.4 4.5 WNW 5.4 9.1 4.0
08:15 7.8 7.8 100 984.3 3.8 NW 5.4 7.6 4.3
08:16 7.8 7.8 100 984.4 3.8 NW 5.4 9.1 4.3
08:17 7.8 7.8 100 984.2 5.4 N 5.4 8.3 4.8
08:18 7.8 7.8 100 984.3 5.4 NW 5.4 13.6 4.9
08:19 7.8 7.8 100 984.6 5.4 NW 5.4 12.1 4.9
08:20 7.8 7.8 100 984.6 5.4 NW 5.4 10.6 4.9
08:22 7.8 7.8 100 984.8 11.4 W 11.4 12.1 5.3
08:23 7.8 7.8 100 984.8 11.4 W 11.4 6.0 5.3
08:24 7.8 7.8 100 984.6 11.4 S 11.4 6.0 5.4
08:25 7.7 7.7 100 984.8 12.1 N 12.1 6.0 5.5
08:26 7.6 7.6 100 984.7 9.2 WNW 12.1 7.6 5.5
08:27 7.6 7.6 100 984.6 10.7 N 12.1 3.8 5.6
08:28 7.4 7.4 100 984.4 6.9 W 12.1 3.8 5.7
08:29 7.4 7.4 100 984.5 5.4 SW 12.1 3.0 5.7
08:30 7.4 7.4 100 984.5 6.9 W 12.1 4.5 5.8
08:31 7.3 7.3 100 984.6 11.4 NW 12.1 3.0 5.8
08:32 7.3 7.3 100 984.3 6.0 N 12.1 2.3 5.9
08:33 7.2 7.2 100 984.2 6.0 NW 12.1 3.8 6.0
08:34 7.2 7.2 100 984.4 7.6 SW 12.1 4.5 6.0
08:35 7.2 7.2 100 984.5 7.6 W 11.4 3.0 6.1
08:36 7.2 7.2 100 984.5 7.6 NW 11.4 3.8 6.2
08:37 7.2 7.2 100 984.9 7.6 NW 11.4 4.5 6.2
08:38 7.2 7.2 100 984.9 7.6 NW 11.4 3.0 6.2
08:39 7.1 7.1 100 984.8 7.6 NW 11.4 1.5 6.3
08:41 7.1 7.1 100 984.5 6.0 NW 11.4 2.3 6.3
08:42 7.1 7.1 100 984.5 6.0 NW 7.6 1.5 6.3
08:43 7.1 7.1 100 984.6 6.9 NW 7.6 3.0 6.4
08:44 7.0 7.0 100 984.6 3.1 W 7.6 3.0 6.6
08:45 7.0 7.0 100 984.3 3.1 W 7.6 3.0 6.6
08:46 7.0 7.0 100 984.3 3.8 NE 7.6 4.5 6.7
08:47 7.0 7.0 100 984.2 3.8 NW 7.6 4.5 6.7
08:48 7.0 7.0 100 984.4 4.5 WNW 7.6 3.0 6.7
08:49 7.0 7.0 100 984.2 3.8 NW 7.6 3.8 6.8
08:50 7.0 7.0 100 984.3 3.1 NW 6.9 3.0 6.8
08:51 7.0 7.0 100 984.4 4.5 W 6.9 1.5 6.8
08:52 7.0 7.0 100 984.4 5.4 W 6.9 1.5 6.9
08:53 7.0 7.0 100 984.2 3.8 E 6.9 2.3 6.9
08:54 7.0 7.0 100 984.4 3.8 W 5.4 1.5 6.9
08:55 7.0 7.0 100 984.4 3.1 W 5.4 0.8 6.9
08:56 7.0 7.0 100 984.4 2.2 NW 5.4 1.5 6.9
08:57 7.0 7.0 100 984.0 3.8 W 5.4 1.5 6.9
08:58 7.0 7.0 100 984.1 3.8 W 5.4 0.8 7.0
09:00 7.0 7.0 100 984.0 5.4 WSW 5.4 1.5 7.0
09:01 7.0 7.0 100 984.1 5.4 WSW 5.4 0.8 7.0
09:02 7.0 7.0 100 984.2 5.4 WSW 5.4 0.8 7.0
09:03 7.0 7.0 100 984.1 5.4 WSW 5.4 0.8 7.0
09:04 7.0 7.0 100 984.1 5.4 WSW 5.4 0.0 7.0
09:05 7.0 7.0 100 984.2 5.4 WSW 5.4 0.0 7.0
09:06 7.0 7.0 100 984.2 5.4 WSW 5.4 0.0 7.0
09:07 6.9 6.9 100 984.3 3.8 WSW 5.4 3.0 7.2
09:08 6.9 6.9 100 984.2 9.8 SW 9.8 3.0 7.3
09:09 6.8 6.8 100 984.2 4.5 W 9.8 3.8 7.3
09:10 6.8 6.8 100 984.2 6.0 N 9.8 3.8 7.3
09:11 6.8 6.8 100 984.1 4.5 WNW 9.8 3.8 7.3
09:12 6.8 6.8 100 984.0 5.4 NW 9.8 1.5 7.4
09:13 6.8 6.8 100 984.1 5.4 SW 9.8 1.5 7.4
09:14 6.8 6.8 100 984.0 6.9 W 9.8 0.8 7.4
09:15 6.8 6.8 100 984.1 6.0 W 9.8 1.5 7.4
09:16 6.8 6.8 100 984.0 5.4 W 9.8 1.5 7.4
09:17 6.8 6.8 100 984.3 6.9 W 9.8 0.8 7.4
09:19 6.8 6.8 100 984.3 8.3 W 8.3 0.8 7.4
09:20 6.8 6.8 100 984.3 7.6 W 8.3 0.0 7.5
09:21 6.8 6.8 100 984.1 8.3 W 8.3 0.8 7.5
09:22 6.8 6.8 100 984.0 8.3 W 8.3 0.8 7.5
09:23 6.8 6.8 100 984.2 6.9 SW 8.3 0.8 7.5
09:24 6.8 6.8 100 984.3 7.6 W 8.3 1.5 7.6
09:25 6.8 6.8 100 984.1 7.6 SW 8.3 1.5 7.6
09:26 6.8 6.8 100 984.1 7.6 W 8.3 0.8 7.6
09:27 6.8 6.8 100 984.2 10.7 SW 10.7 0.8 7.6
09:28 6.8 6.8 100 984.3 6.9 W 10.7 0.8 7.6
09:29 6.8 6.8 100 984.4 8.3 SW 10.7 0.8 7.6
09:30 6.8 6.8 100 984.6 7.6 SW 10.7 0.8 7.7
09:31 6.8 6.8 100 984.6 6.0 SW 10.7 1.5 7.7
09:32 6.8 6.8 100 984.3 8.3 W 10.7 1.5 7.7
09:33 6.9 6.9 100 984.6 8.3 W 10.7 1.5 7.7
09:34 6.9 6.9 100 984.6 8.3 WSW 10.7 0.8 7.7
09:35 6.9 6.9 100 984.5 7.6 NW 10.7 0.8 7.7
09:36 6.9 6.9 100 984.4 9.8 W 10.7 0.0 7.7
09:38 6.9 6.9 100 984.4 12.1 W 12.1 0.8 7.7
09:39 6.9 6.9 100 984.4 12.1 W 12.1 0.8 7.7
09:40 6.9 6.9 100 984.4 7.6 SW 12.1 0.8 7.7
09:41 6.9 6.9 100 984.6 7.6 SW 12.1 0.8 7.8
09:42 6.9 6.9 100 984.7 13.0 WSW 13.0 0.8 7.8
09:43 6.9 6.9 100 984.7 13.0 W 13.0 0.8 7.8
09:44 6.9 6.9 100 984.4 11.4 SW 13.0 0.8 7.8
09:45 6.9 6.9 100 984.4 9.8 SW 13.0 0.8 7.9
09:46 6.9 6.9 100 984.5 13.6 WSW 13.6 1.5 7.9
09:47 6.9 6.9 100 984.5 13.6 W 13.6 1.5 7.9
09:48 6.9 6.9 100 984.5 12.1 W 13.6 1.5 7.9
09:49 6.9 6.9 100 984.5 12.1 SW 13.6 1.5 7.9
09:50 6.9 6.9 100 984.5 14.5 WNW 14.5 1.5 7.9
09:51 6.9 6.9 100 984.4 17.4 W 17.4 0.8 7.9
09:52 6.8 6.8 100 984.6 19.7 W 19.7 0.0 7.9
09:53 6.8 6.8 100 984.6 13.6 WSW 19.7 0.0 8.0
09:54 6.7 6.7 100 984.5 15.9 NW 19.7 0.8 8.0
09:56 6.7 6.7 100 984.5 14.5 SW 19.7 1.5 8.1
09:57 6.7 6.7 100 984.6 13.6 W 19.7 1.5 8.1
09:58 6.7 6.7 100 984.6 13.6 W 19.7 2.3 8.1
09:59 6.7 6.7 100 984.4 15.2 W 19.7 1.5 8.1
10:00 6.6 6.6 100 984.5 19.0 W 19.7 1.5 8.2
10:01 6.6 6.6 100 984.5 16.8 SW 19.7 1.5 8.2
10:02 6.6 6.6 100 984.5 14.5 WSW 19.7 1.5 8.2
10:03 6.6 6.6 100 984.4 20.6 WNW 20.6 0.8 8.2
10:04 6.6 6.6 100 984.2 13.0 WNW 20.6 1.5 8.3
10:05 6.6 6.6 100 984.3 8.3 NW 20.6 1.5 8.3
10:06 6.6 6.6 100 984.3 13.0 NW 20.6 0.8 8.3
10:07 6.6 6.6 100 984.2 20.6 N 20.6 1.5 8.3
10:08 6.5 6.5 100 984.2 16.8 N 20.6 1.5 8.3
10:09 6.4 6.4 100 984.1 16.8 W 20.6 0.8 8.4
10:10 6.4 6.4 100 984.1 13.6 WSW 20.6 1.5 8.4
10:11 6.4 6.4 100 984.1 16.8 WNW 20.6 1.5 8.4
10:12 6.3 6.3 100 984.2 11.4 SW 20.6 1.5 8.4
10:13 6.3 6.3 100 984.3 13.6 W 20.6 1.5 8.5
10:15 6.2 6.2 100 984.4 13.6 WSW 20.6 1.5 8.5
10:16 6.2 6.2 100 984.4 15.2 SSW 20.6 1.5 8.5
10:17 6.2 6.2 100 984.3 11.4 N 20.6 0.8 8.6
10:18 6.2 6.2 100 984.3 11.4 NW 16.8 2.3 8.6
10:19 6.2 6.2 100 984.2 12.1 NE 16.8 1.5 8.6
10:20 6.2 6.2 100 984.4 10.7 SE 16.8 1.5 8.6
10:21 6.1 6.1 100 984.2 11.4 NW 16.8 1.5 8.6
10:22 6.1 6.1 100 984.4 8.3 NW 15.2 1.5 8.6
10:23 6.1 6.1 100 984.4 9.2 W 15.2 0.0 8.6
10:24 6.1 6.1 100 984.3 6.9 NNW 15.2 0.0 8.6
10:25 6.1 6.1 100 984.3 9.8 SW 15.2 0.0 8.6
10:26 6.1 6.1 100 984.3 9.8 SW 15.2 0.0 8.6
10:27 6.1 6.1 100 984.3 11.4 WSW 13.0 0.0 8.6
10:28 6.2 6.2 100 984.2 11.4 WNW 13.0 0.0 8.6
10:29 6.2 6.2 100 984.5 7.6 SW 13.0 0.0 8.6
10:30 6.2 6.2 100 984.2 9.2 WSW 13.0 0.0 8.6
10:31 6.2 6.2 100 984.3 13.0 WNW 13.0 0.0 8.6
10:32 6.2 6.2 100 984.3 13.0 WSW 13.0 0.0 8.6
10:33 6.2 6.2 100 984.4 12.1 W 13.0 0.0 8.6
10:35 6.2 6.2 100 984.3 9.2 SW 13.0 0.0 8.6
10:36 6.3 6.3 100 984.4 9.8 NE 13.0 0.0 8.6
10:37 6.3 6.3 100 984.5 6.9 WNW 13.0 0.0 8.6
10:38 6.3 6.3 100 984.5 12.1 SW 13.0 0.0 8.6
10:39 6.3 6.3 100 984.2 13.0 W 13.0 0.0 8.6
10:40 6.4 6.4 100 984.2 14.5 W 14.5 0.0 8.6
10:41 6.4 6.4 100 984.3 13.0 NW 14.5 0.0 8.6
10:42 6.4 6.4 100 984.4 13.0 W 14.5 0.0 8.6
10:43 6.4 6.4 100 984.5 13.0 W 14.5 0.0 8.6
10:44 6.5 6.5 100 984.3 14.5 W 14.5 0.0 8.6
10:45 6.5 6.5 100 984.4 13.6 SW 14.5 0.0 8.6
10:46 6.6 6.6 100 984.5 16.8 W 16.8 0.0 8.6
10:47 6.6 6.6 100 984.5 19.0 W 19.0 0.0 8.6
10:48 6.7 6.7 100 984.6 16.8 W 19.0 0.0 8.6
10:49 6.8 6.8 100 984.7 15.9 W 19.0 0.0 8.6
10:50 6.8 6.8 100 984.7 13.0 NW 19.0 0.0 8.6
10:51 6.8 6.8 100 984.5 12.1 W 19.0 0.0 8.6
10:53 7.0 7.0 100 984.6 14.5 SW 19.0 0.0 8.6
10:54 7.1 7.1 100 984.7 13.0 WSW 19.0 0.0 8.6
10:55 7.1 7.1 100 984.7 13.0 WSW 19.0 0.0 8.6
10:56 7.2 7.2 100 984.6 22.8 WSW 22.8 0.0 8.6
10:57 7.2 7.2 100 984.6 19.0 W 22.8 0.0 8.6
10:58 7.2 7.2 100 984.9 16.8 SW 22.8 0.0 8.6
10:59 7.2 7.2 100 984.8 22.8 SW 22.8 0.0 8.6
11:00 7.2 7.2 100 985.0 23.5 SW 23.5 0.0 8.6
11:01 7.2 7.2 100 985.2 23.5 SW 23.5 0.0 8.6
11:02 7.2 7.2 100 985.2 23.5 SW 23.5 0.0 8.6
11:03 7.2 7.2 100 985.2 23.5 SW 23.5 0.0 8.6
11:04 7.2 7.2 100 985.3 23.5 SW 23.5 0.0 8.6
11:05 7.2 7.2 100 985.4 23.5 SW 23.5 0.0 8.6
11:06 6.5 6.5 100 985.5 17.4 WSW 23.5 0.0 8.9
11:07 6.4 6.4 100 985.2 21.3 SW 23.5 3.8 9.0
11:08 6.4 6.4 100 985.3 20.6 SW 23.5 4.5 9.0
11:09 6.3 6.3 100 985.5 15.9 SW 23.5 4.5 9.1
11:10 6.2 6.2 100 985.8 16.8 W 23.5 5.3 9.1
11:11 6.2 6.2 100 985.6 15.9 W 23.5 5.3 9.1
11:12 6.1 6.1 100 985.7 15.9 NW 23.5 2.3 9.1
11:13 6.1 6.1 100 985.5 13.6 W 23.5 1.5 9.2
11:14 6.1 6.1 100 985.5 14.5 SW 23.5 2.3 9.3
11:15 6.0 6.0 100 985.4 19.0 WSW 23.5 2.3 9.3
11:16 6.0 6.0 100 985.4 19.0 S 21.3 2.3 9.3
11:17 5.9 5.9 100 985.4 15.2 WSW 21.3 1.5 9.3
11:18 5.9 5.9 100 985.5 16.8 W 20.6 1.5 9.3
11:19 5.9 5.9 100 985.4 16.8 S 19.0 0.8 9.3
11:21 5.9 5.9 100 985.5 21.3 S 21.3 0.8 9.4
11:22 5.9 5.9 100 985.5 21.3 S 21.3 1.5 9.4
11:23 5.9 5.9 100 985.6 19.7 W 21.3 1.5 9.4
11:24 5.8 5.8 100 985.4 15.2 NW 21.3 1.5 9.4
11:25 5.8 5.8 100 985.8 15.2 WSW 21.3 0.8 9.4
11:26 5.8 5.8 100 985.5 19.0 NW 21.3 1.5 9.4
11:27 5.8 5.8 100 985.6 19.0 SW 21.3 0.8 9.4
11:28 5.8 5.8 100 985.6 16.8 W 21.3 0.8 9.4
11:29 5.8 5.8 100 985.5 17.4 SE 21.3 0.8 9.5
11:30 5.7 5.7 100 985.9 22.1 W 22.1 1.5 9.5
11:31 5.7 5.7 100 985.7 15.2 SE 22.1 0.8 9.5
11:32 5.7 5.7 100 985.8 21.3 W 22.1 0.8 9.5
11:33 5.7 5.7 100 985.8 20.6 W 25.1 0.8 9.6
11:34 5.7 5.7 100 985.5 20.6 NW 25.1 1.5 9.6
11:35 5.7 5.7 100 985.7 20.6 SW 25.1 0.8 9.6
11:36 5.7 5.7 100 985.7 15.2 WSW 25.1 0.8 9.6
11:37 5.7 5.7 100 985.7 19.0 W 25.1 0.8 9.6
11:38 5.7 5.7 100 985.7 17.4 W 25.1 0.8 9.6
11:40 5.7 5.7 100 985.8 15.2 SW 25.1 0.0 9.6
11:41 5.7 5.7 100 985.6 14.5 S 25.1 0.0 9.6
11:42 5.7 5.7 100 985.6 22.8 SW 25.1 0.0 9.6
11:43 5.8 5.8 100 985.7 17.4 WSW 25.1 0.0 9.6
11:44 5.8 5.8 100 985.8 15.2 WSW 22.8 0.0 9.6
11:45 5.8 5.8 100 986.0 12.1 NW 22.8 0.0 9.6
11:46 5.9 5.9 100 986.0 17.4 W 22.8 0.0 9.6
11:47 5.9 5.9 100 985.8 17.4 WSW 22.8 0.0 9.6
11:48 5.9 5.9 100 985.9 25.1 NW 25.1 0.0 9.6
11:49 6.0 6.0 100 985.9 15.9 SW 25.1 0.0 9.6
11:50 6.0 6.0 100 985.8 13.6 S 25.1 0.0 9.6
11:51 6.1 6.1 100 986.0 9.8 W 25.1 0.0 9.6
11:52 6.1 6.1 100 985.9 12.1 W 25.1 0.0 9.6
11:53 6.1 6.1 100 986.1 15.2 SW 25.1 0.0 9.6
11:54 6.1 6.1 100 985.9 15.9 W 25.1 0.8 9.6
11:55 6.1 6.1 100 986.1 15.9 WSW 25.1 0.8 9.6
11:56 6.2 6.2 100 985.8 16.8 WSW 25.1 0.8 9.6
11:57 6.2 6.2 100 986.0 13.0 W 25.1 0.8 9.6
11:59 6.2 6.2 100 986.0 15.9 SW 16.8 0.0 9.6
12:00 6.3 6.3 100 985.9 16.8 NNW 16.8 0.0 9.6
12:01 6.3 6.3 100 985.8 15.2 W 16.8 0.0 9.6
12:02 6.3 6.3 100 985.9 15.9 W 16.8 0.0 9.6
12:03 6.4 6.4 100 985.9 16.8 W 16.8 0.0 9.6
12:04 6.5 6.5 100 986.2 22.1 WSW 22.1 0.0 9.6
12:05 6.6 6.6 100 986.0 19.7 W 22.1 0.0 9.6
12:06 6.6 6.6 100 985.9 19.0 W 22.1 0.0 9.6
12:07 6.6 6.6 100 986.1 19.0 WNW 22.1 0.8 9.7
12:08 6.6 6.6 100 986.2 15.2 WNW 22.1 0.8 9.7
12:09 6.5 6.5 100 986.1 13.6 W 22.1 0.8 9.7
12:10 6.5 6.5 100 986.3 19.7 SW 22.1 1.5 9.8
12:11 6.4 6.4 100 986.2 18.3 SW 22.1 1.5 9.8
12:12 6.4 6.4 100 985.9 12.1 W 22.1 0.8 9.8
12:13 6.4 6.4 100 986.0 17.4 SW 22.1 0.8 9.8
12:14 6.3 6.3 100 986.3 18.3 SW 22.1 0.8 9.8
12:15 6.3 6.3 100 986.2 12.1 SW 19.7 0.8 9.9
12:16 6.2 6.2 100 986.2 16.8 W 19.7 1.5 10.0
12:18 6.1 6.1 100 986.3 22.8 NW 22.8 3.0 10.3
12:19 6.0 6.0 100 986.4 23.5 W 23.5 6.0 10.3
12:20 5.9 5.9 100 986.5 25.1 WNW 25.1 6.0 10.3
12:21 5.9 5.9 100 986.5 22.1 SW 25.1 5.3 10.4
12:22 5.8 5.8 100 986.5 29.8 SW 29.8 5.3 10.5
12:23 5.7 5.7 100 986.4 34.9 WSW 34.9 5.3 10.5
12:24 5.6 5.6 100 986.6 26.6 W 34.9 2.3 10.5
12:25 5.6 5.6 100 986.7 25.1 NW 34.9 2.3 10.5
12:26 5.5 5.5 100 986.7 21.3 W 34.9 2.3 10.5
12:27 5.5 5.5 100 986.6 32.0 W 34.9 1.5 10.6
12:28 5.3 5.3 100 986.5 28.2 W 34.9 2.3 10.6
12:29 5.2 5.1 99 986.5 26.6 W 34.9 2.3 10.8
12:30 5.2 5.1 99 986.6 21.3 WSW 34.9 3.0 10.8
12:31 5.2 5.1 99 986.5 25.9 WSW 34.9 3.0 10.8
12:32 5.1 5.0 99 986.4 22.1 W 34.9 2.3 10.8
12:33 5.1 5.0 99 986.4 19.7 WNW 32.0 2.3 10.8
12:34 5.1 5.0 99 986.4 13.6 WNW 32.0 2.3 10.9
12:35 5.1 5.0 99 986.4 13.0 W 32.0 1.5 10.9
12:37 5.1 5.0 99 986.4 13.0 W 31.1 1.5 11.0
12:38 5.1 5.0 99 986.4 13.0 W 28.2 1.5 11.0
12:39 5.1 5.0 99 986.6 15.9 SW 28.2 1.5 11.0
12:40 5.2 5.1 99 986.6 17.4 WSW 25.9 0.8 11.0
12:41 5.3 5.2 99 986.5 26.6 NW 26.6 0.8 11.0
12:42 5.4 5.3 99 986.3 26.6 NW 26.6 1.5 11.0
12:43 5.5 5.4 99 986.3 23.5 W 26.6 0.8 11.0
12:44 5.7 5.6 99 986.6 16.8 W 26.6 0.8 11.0
12:45 5.8 5.7 99 986.3 16.8 WSW 26.6 0.8 11.0
12:46 5.9 5.8 99 986.5 14.5 WSW 26.6 0.8 11.0
12:47 6.0 5.9 99 986.6 14.5 W 26.6 0.0 11.0
12:48 6.2 6.1 99 986.4 24.4 W 26.6 0.0 11.0
12:49 6.4 6.3 99 986.5 26.6 SW 26.6 0.0 11.0
12:50 6.5 6.4 99 986.4 19.7 SW 26.6 0.0 11.0
12:51 6.6 6.5 99 986.6 20.6 SW 26.6 0.0 11.0
12:52 6.7 6.6 99 986.6 15.2 W 26.6 0.0 11.0
12:53 6.8 6.8 100 986.8 16.8 SW 26.6 0.0 11.0
12:54 6.8 6.8 100 986.8 17.4 SW 26.6 0.0 11.0
12:56 6.8 6.8 100 986.6 19.0 W 26.6 0.0 11.0
12:57 6.8 6.7 99 986.5 13.0 W 26.6 0.0 11.0
12:58 6.8 6.7 99 986.8 19.7 WSW 26.6 0.0 11.0
12:59 6.7 6.6 99 986.9 19.7 W 26.6 0.0 11.0
13:00 6.7 6.6 99 986.8 10.7 SW 20.6 0.0 11.0
13:01 6.7 6.6 99 986.8 10.7 SW 20.6 0.0 11.0
13:02 6.7 6.6 99 986.7 10.7 SW 19.7 0.0 11.0
13:03 6.7 6.6 99 986.7 10.7 SW 19.7 0.0 11.0
13:04 6.7 6.6 99 986.7 10.7 SW 19.7 0.0 11.0
13:05 6.7 6.6 99 986.9 10.7 SW 19.7 0.0 11.0
13:06 6.7 6.6 99 986.9 10.7 SW 19.7 0.0 11.0
13:07 6.9 6.8 99 986.8 15.2 SW 19.7 0.8 11.1
13:08 7.0 6.9 99 986.9 15.2 W 19.7 0.8 11.1
13:09 7.1 7.0 99 986.8 14.5 SW 15.2 0.8 11.1
13:10 7.2 7.1 99 987.0 12.1 W 15.2 0.8 11.1
13:11 7.3 7.2 99 987.0 16.8 W 16.8 0.8 11.1
13:12 7.3 7.2 99 987.1 14.5 NNW 16.8 0.0 11.1
13:13 7.5 6.4 93 986.9 13.0 W 16.8 0.0 11.1
13:14 7.5 6.4 93 986.9 14.5 SW 16.8 0.0 11.1
13:15 7.6 6.5 93 987.0 19.7 WSW 19.7 0.0 11.1
13:16 7.5 6.4 93 987.0 19.7 WSW 19.7 0.0 11.1
13:17 7.5 6.4 93 987.2 15.2 W 19.7 0.0 11.1
13:19 7.4 7.1 98 987.2 15.9 W 19.7 0.0 11.1
13:20 7.3 7.0 98 987.3 13.0 N 19.7 0.0 11.1
13:21 7.3 7.0 98 987.4 19.7 W 19.7 0.0 11.1
13:22 7.2 6.8 97 987.5 19.7 W 19.7 0.0 11.1
13:23 7.2 6.8 97 987.4 12.1 NW 19.7 0.0 11.1
13:24 7.1 6.7 97 987.5 14.5 SW 19.7 0.0 11.1
13:25 7.1 6.5 96 987.3 13.0 NW 19.7 0.0 11.1
13:26 7.0 6.4 96 987.3 13.0 W 19.7 0.0 11.1
13:27 7.0 6.4 96 987.4 13.0 W 19.7 0.0 11.1
13:28 7.0 6.4 96 987.3 10.7 WSW 19.7 0.0 11.1
13:29 6.9 6.2 95 987.4 15.2 NW 19.7 0.0 11.1
13:30 6.9 6.2 95 987.4 13.6 SW 19.7 0.0 11.1
13:31 6.8 5.9 94 987.4 24.4 WNW 24.4 0.0 11.1
13:32 6.8 5.9 94 987.4 20.6 SW 24.4 0.0 11.1
13:33 6.7 5.8 94 987.8 19.0 NW 24.4 0.0 11.1
13:34 6.7 5.6 93 987.8 17.4 W 24.4 0.0 11.1
13:35 6.7 5.6 93 987.6 22.1 NW 24.4 0.0 11.1
13:36 6.7 5.6 93 987.4 15.2 SW 24.4 0.0 11.1
13:37 6.7 5.6 93 987.4 22.8 WSW 24.4 0.0 11.1
13:39 6.7 5.5 92 987.4 17.4 WSW 24.4 0.0 11.1
13:40 6.7 5.5 92 987.6 15.9 W 24.4 0.0 11.1
13:41 6.7 5.5 92 987.6 19.7 WNW 24.4 0.0 11.1
13:42 6.7 5.5 92 987.9 20.6 S 22.8 0.0 11.1
13:43 6.6 5.4 92 987.9 24.4 W 24.4 0.0 11.1
13:44 6.6 5.2 91 988.0 20.6 W 24.4 0.0 11.1
13:45 6.5 5.1 91 987.8 15.9 NW 24.4 0.0 11.1
13:46 6.5 5.1 91 987.9 19.7 W 24.4 0.0 11.1
13:47 6.4 5.0 91 988.1 19.7 SW 24.4 0.0 11.1
13:48 6.3 4.8 90 988.2 24.4 W 24.4 0.0 11.1
13:49 6.3 4.8 90 988.0 21.3 W 24.4 0.0 11.1
13:50 6.2 4.7 90 988.0 18.3 NW 24.4 0.0 11.1
13:51 6.1 4.6 90 988.0 17.4 SW 24.4 0.0 11.1
13:52 6.0 4.5 90 988.0 19.7 W 24.4 0.0 11.1
13:53 5.9 4.4 90 988.2 19.7 SW 24.4 0.0 11.2
13:54 5.8 4.1 89 988.2 16.8 NW 24.4 0.8 11.2
13:55 5.7 4.0 89 988.1 22.8 NW 24.4 0.8 11.2
13:56 5.7 4.0 89 988.4 22.8 W 24.4 0.8 11.2
13:58 5.5 3.8 89 988.2 20.6 W 24.4 0.8 11.2
13:59 5.4 3.7 89 988.4 15.9 W 22.8 0.0 11.2
14:00 5.4 3.7 89 988.2 15.9 SW 22.8 0.0 11.2
14:01 5.3 3.6 89 988.3 14.5 SW 22.8 0.0 11.2
14:02 5.3 3.6 89 988.5 13.6 SW 22.8 0.0 11.2
14:03 5.2 3.5 89 988.4 13.6 SW 22.8 0.0 11.2
14:04 5.2 3.7 90 988.2 11.4 NNW 22.8 0.0 11.2
14:05 5.1 3.6 90 988.3 10.7 WNW 22.8 0.0 11.2
14:06 5.1 3.6 90 988.2 9.8 W 22.8 0.8 11.2
14:07 5.1 3.6 90 988.0 10.7 W 20.6 0.8 11.2
14:08 5.1 3.6 90 988.3 12.1 W 20.6 0.8 11.2
14:09 5.1 3.6 90 988.3 8.3 WNW 15.9 0.8 11.2
14:10 5.1 3.6 90 988.1 14.5 SW 14.5 1.5 11.3
14:11 5.0 3.5 90 988.4 11.4 SW 14.5 0.8 11.3
14:12 5.0 3.5 90 988.3 11.4 W 14.5 0.8 11.3
14:13 5.0 3.5 90 988.5 14.5 WSW 14.5 0.8 11.3
14:14 5.0 3.7 91 988.3 14.5 W 14.5 0.8 11.3
14:15 5.0 3.7 91 988.3 13.0 W 14.5 0.0 11.3
14:17 5.0 3.7 91 988.2 10.7 SW 14.5 0.0 11.3
14:18 5.0 3.7 91 988.1 12.1 W 14.5 0.0 11.3
14:19 5.0 3.7 91 988.1 12.1 W 14.5 0.0 11.3
14:20 5.1 3.8 91 988.4 9.2 SW 14.5 0.0 11.3
14:21 5.1 3.8 91 988.2 9.2 WSW 14.5 0.0 11.3
14:22 5.1 3.8 91 988.2 11.4 SW 14.5 0.8 11.3
14:23 5.2 3.9 91 988.3 11.4 SW 14.5 0.8 11.3
14:24 5.3 4.1 92 988.4 7.6 WSW 14.5 0.8 11.3
14:25 5.4 4.2 92 988.3 10.7 WSW 13.0 0.8 11.3
14:26 5.4 4.2 92 988.3 9.8 W 12.1 0.8 11.3
14:27 5.6 4.4 92 988.1 11.4 W 12.1 0.0 11.3
14:28 5.7 4.5 92 988.4 11.4 SW 12.1 0.0 11.3
14:29 5.9 4.9 93 988.3 8.3 WSW 11.4 0.0 11.3
14:30 6.1 5.1 93 988.2 10.7 WSW 11.4 0.0 11.3
14:31 6.2 5.2 93 988.3 13.0 SW 13.0 0.0 11.3
14:32 6.3 5.3 93 988.2 10.7 W 13.0 0.0 11.3
14:33 6.3 5.3 93 988.2 8.3 SW 13.0 0.0 11.3
14:34 6.5 5.6 94 988.2 9.2 SW 13.0 0.0 11.3
14:36 6.6 5.7 94 988.1 17.4 SW 19.7 0.0 11.3
14:37 6.7 5.8 94 988.2 19.0 W 19.7 0.0 11.3
14:38 6.7 5.8 94 988.3 19.0 W 19.7 0.0 11.3
14:39 7.0 6.1 94 988.1 13.6 W 19.7 0.0 11.3
14:40 7.0 6.3 95 988.3 22.1 SW 22.1 0.0 11.3
14:41 7.2 6.5 95 988.1 22.1 W 22.1 0.0 11.3
14:42 7.3 6.6 95 988.3 17.4 W 22.1 0.0 11.3
14:43 7.4 6.7 95 988.4 15.2 W 22.1 0.0 11.3
14:44 7.5 6.0 90 988.2 20.6 SSW 22.1 0.0 11.3
14:45 7.6 5.9 89 988.4 22.8 SW 22.8 0.0 11.3
14:46 7.6 5.9 89 988.3 19.0 W 22.8 0.0 11.3
14:47 7.7 6.0 89 988.2 22.1 W 22.8 0.0 11.3
14:48 7.6 5.7 88 988.4 17.4 W 22.8 0.0 11.3
14:49 7.6 5.6 87 988.3 19.7 SW 22.8 0.0 11.3
14:50 7.5 5.3 86 988.3 15.9 SW 22.8 0.0 11.3
14:51 7.5 5.1 85 988.5 17.4 W 22.8 0.0 11.3
14:52 7.4 5.9 90 988.4 21.3 WSW 22.8 0.0 11.3
14:53 7.4 5.9 90 988.3 22.8 WSW 22.8 0.0 11.3
14:55 7.1 5.4 89 988.4 28.2 SW 28.2 0.0 11.3
14:56 7.1 5.2 88 988.6 28.2 W 28.2 0.0 11.3
14:57 7.0 5.0 87 988.8 22.1 NW 28.2 0.0 11.4
14:58 6.9 4.9 87 988.7 24.4 SW 28.2 0.8 11.4
14:59 6.7 4.5 86 988.6 25.1 W 28.2 1.5 11.5
15:00 6.6 4.4 86 988.6 25.1 W 28.2 2.3 11.5
15:01 6.6 4.4 86 988.6 25.1 W 28.2 2.3 11.5
15:02 6.6 4.4 86 989.0 25.1 W 28.2 2.3 11.5
15:03 6.6 4.4 86 988.6 25.1 W 28.2 1.5 11.5
15:04 6.6 4.4 86 988.7 25.1 W 28.2 0.8 11.5
15:05 6.6 4.4 86 988.5 25.1 W 28.2 0.0 11.5
15:06 6.6 4.4 86 988.7 25.1 W 28.2 0.0 11.5
15:07 6.1 4.1 87 988.6 14.5 W 25.1 1.5 11.7
15:08 6.1 4.1 87 988.6 18.3 WSW 25.1 1.5 11.7
15:09 6.2 4.4 88 988.6 19.0 NW 25.1 1.5 11.7
15:10 6.2 4.5 89 988.5 19.7 SW 25.1 1.5 11.7
15:11 6.3 4.6 89 988.7 19.7 SW 25.1 1.5 11.7
15:12 6.3 4.6 89 988.7 20.6 SW 25.1 0.0 11.7
15:13 6.3 4.6 89 988.6 15.9 SW 25.1 0.0 11.7
15:14 6.4 4.7 89 988.7 22.1 S 25.1 0.0 11.7
15:15 6.4 4.7 89 988.9 22.1 S 25.1 0.0 11.7
15:16 6.4 4.7 89 988.8 23.5 SW 23.5 0.0 11.7
15:17 6.4 4.7 89 988.9 22.1 S 23.5 0.0 11.7
15:19 6.4 4.7 89 988.7 27.3 SW 29.8 0.8 11.7
15:20 6.4 4.7 89 988.7 27.3 SW 29.8 0.8 11.7
15:21 6.4 4.7 89 988.9 17.4 W 29.8 0.8 11.7
15:22 6.4 4.7 89 988.9 22.8 NW 29.8 0.8 11.7
15:23 6.4 4.6 88 988.9 18.3 W 29.8 0.0 11.7
15:24 6.4 4.6 88 988.9 20.6 N 29.8 0.0 11.7
15:25 6.4 4.4 87 988.7 15.2 WSW 29.8 0.0 11.7
15:26 6.4 4.4 87 988.9 16.8 WSW 29.8 0.0 11.7
15:27 6.4 4.4 87 988.9 16.8 WSW 29.8 0.0 11.7
15:28 6.3 4.3 87 988.8 17.4 SW 29.8 0.0 11.7
15:29 6.3 4.3 87 988.7 15.9 N 29.8 0.0 11.7
15:30 6.4 4.4 87 988.7 19.0 W 23.5 0.0 11.7
15:31 6.4 4.4 87 988.8 17.4 W 22.8 0.0 11.7
15:32 6.5 4.7 88 988.8 19.0 SW 20.6 0.0 11.7
15:33 6.6 4.8 88 988.8 18.3 W 20.6 0.0 11.7
15:34 6.6 4.8 88 988.9 15.2 WSW 19.0 0.0 11.7
15:35 6.7 4.9 88 988.8 23.5 SW 23.5 0.0 11.7
15:36 6.8 5.0 88 988.8 23.5 W 23.5 0.0 11.7
15:38 6.9 5.1 88 989.1 24.4 SW 24.4 0.0 11.7
15:39 6.9 5.1 88 989.1 24.4 SW 24.4 0.0 11.7
15:40 6.9 5.1 88 989.1 19.7 SW 24.4 0.0 11.7
15:41 7.1 5.2 88 989.1 15.2 W 24.4 0.0 11.7
15:42 7.2 5.3 88 988.8 18.3 SW 24.4 0.8 11.8
15:43 7.2 5.3 88 989.2 20.6 NW 24.4 0.8 11.8
15:44 7.3 5.4 88 989.2 25.1 WSW 25.1 0.8 11.8
15:45 7.4 5.5 88 989.3 19.0 WSW 25.1 0.8 11.8
15:46 7.4 5.5 88 989.4 22.8 WSW 25.1 0.8 11.8
15:47 7.4 5.5 88 989.3 22.8 WSW 25.1 0.0 11.8
15:48 7.4 5.2 86 989.3 24.4 W 25.1 0.0 11.8
15:49 7.4 5.0 85 989.2 18.3 NW 25.1 0.0 11.8
15:50 7.4 5.0 85 989.0 19.0 WSW 25.1 0.0 11.8
15:51 7.5 4.3 80 989.3 22.8 SW 25.1 0.0 11.8
15:52 7.5 4.3 80 989.2 18.3 WSW 25.1 0.0 11.8
15:53 7.4 4.9 84 989.2 21.3 NW 25.1 0.0 11.8
15:54 7.4 4.7 83 989.1 19.0 W 24.4 0.0 11.8
15:55 7.3 4.6 83 989.2 21.3 SW 24.4 0.0 11.8
15:57 7.3 4.6 83 989.3 15.9 SW 24.4 0.0 11.8
15:58 7.3 4.4 82 989.2 14.5 SW 22.8 0.0 11.8
15:59 7.3 4.4 82 989.4 13.0 W 22.8 0.0 11.8
16:00 7.3 4.6 83 989.1 13.0 WSW 22.8 0.0 11.8
16:01 7.4 4.7 83 989.3 17.4 SW 22.8 0.0 11.8
16:02 7.5 4.1 79 989.3 15.9 SW 21.3 0.0 11.8
16:03 7.5 4.1 79 989.3 15.9 SW 21.3 0.0 11.8
16:04 7.5 4.1 79 989.5 21.3 SW 21.3 0.0 11.8
16:05 7.6 4.2 79 989.4 15.9 SW 21.3 0.0 11.8
16:06 7.6 4.2 79 989.2 20.6 WSW 21.3 0.0 11.8
16:07 7.6 4.2 79 989.2 20.6 SW 21.3 0.0 11.8
16:08 7.6 4.2 79 989.1 19.0 WNW 21.3 0.0 11.8
16:09 7.6 4.2 79 989.4 14.5 W 21.3 0.0 11.8
16:10 7.7 4.3 79 989.5 20.6 W 21.3 0.0 11.8
16:11 7.7 4.3 79 989.3 17.4 SW 21.3 0.0 11.8
16:12 7.7 4.3 79 989.6 13.0 NW 21.3 0.0 11.8
16:13 7.7 4.1 78 989.3 21.3 SW 21.3 0.0 11.8
16:14 7.6 4.0 78 989.5 23.5 SW 23.5 0.0 11.8
16:16 7.6 3.8 77 989.5 25.9 W 25.9 0.0 11.8
16:17 7.5 3.5 76 989.4 17.4 WSW 25.9 0.0 11.8
16:18 7.5 3.5 76 989.4 17.4 WSW 25.9 0.0 11.8
16:19 7.4 4.2 80 989.6 16.8 SW 25.9 0.0 11.8
16:20 7.3 4.1 80 989.4 15.9 SE 25.9 0.0 11.8
16:21 7.3 4.1 80 989.4 13.0 W 25.9 0.0 11.8
16:22 7.2 4.0 80 989.5 19.0 W 25.9 0.0 11.8
16:23 7.2 4.0 80 989.6 13.6 W 25.9 0.0 11.8
16:24 7.2 4.0 80 989.5 14.5 W 25.9 0.0 11.8
16:25 7.1 3.9 80 989.5 16.8 W 25.9 0.0 11.8
16:26 7.0 3.8 80 989.4 17.4 SW 25.9 0.0 11.8
16:27 7.0 3.8 80 989.5 12.1 SSW 19.0 0.0 11.8
16:28 7.0 4.0 81 989.6 15.9 W 19.0 0.0 11.8
16:29 7.0 4.0 81 989.4 15.9 W 19.0 0.0 11.8
16:30 6.9 3.9 81 989.4 14.5 SW 19.0 0.0 11.8
16:31 6.9 3.9 81 989.6 14.5 SW 19.0 0.0 11.8
16:32 6.8 3.8 81 989.4 12.1 WSW 17.4 0.0 11.8
16:33 6.8 3.8 81 989.5 9.2 W 17.4 0.0 11.8
16:35 6.8 3.8 81 989.4 15.2 S 17.4 0.0 11.8
16:36 6.8 3.8 81 989.4 15.2 S 17.4 0.0 11.8
16:37 6.8 3.9 82 989.4 15.2 WSW 15.9 0.0 11.8
16:38 6.8 3.9 82 989.5 13.0 SW 15.9 0.0 11.8
16:39 6.8 3.9 82 989.6 13.0 WSW 15.9 0.0 11.8
16:40 6.8 3.9 82 989.7 11.4 WSW 15.2 0.0 11.8
16:41 6.8 3.9 82 989.6 12.1 SW 15.2 0.0 11.8
16:42 6.8 4.1 83 989.6 14.5 W 15.2 0.0 11.8
16:43 6.8 4.1 83 989.4 18.3 S 18.3 0.0 11.8
16:44 6.8 4.1 83 989.5 18.3 W 18.3 0.0 11.8
16:45 6.8 4.1 83 989.3 13.6 W 18.3 0.0 11.8
16:46 6.7 4.0 83 989.6 15.2 S 18.3 0.0 11.8
16:47 6.7 4.0 83 989.6 19.0 SW 19.0 0.0 11.8
16:48 6.7 4.2 84 989.6 16.8 SW 19.0 0.0 11.8
16:49 6.7 4.2 84 989.3 15.9 SW 19.0 0.0 11.8
16:50 6.7 4.2 84 989.5 18.3 SSW 19.0 0.0 11.8
16:51 6.6 4.1 84 989.6 19.7 SW 19.7 0.0 11.8
16:52 6.6 4.1 84 989.5 19.0 SW 19.7 0.8 11.8
16:54 6.6 4.3 85 989.4 14.5 SW 19.7 0.8 11.8
16:55 6.6 4.3 85 989.4 14.5 SW 19.7 0.8 11.8
16:56 6.6 4.3 85 989.7 13.6 SW 19.7 0.8 11.8
16:57 6.6 4.3 85 989.7 14.5 SW 19.7 0.0 11.8
16:58 6.6 4.4 86 989.7 15.2 W 19.7 0.0 11.8
16:59 6.6 4.4 86 989.6 17.4 SW 19.7 0.0 11.8
17:00 6.6 4.4 86 989.7 17.4 W 19.7 0.0 11.8
17:01 6.6 4.4 86 989.7 17.4 W 19.7 0.0 11.8
17:02 6.6 4.4 86 989.8 17.4 W 19.0 0.0 11.8
17:03 6.6 4.4 86 989.8 17.4 W 17.4 0.0 11.8
17:04 6.6 4.4 86 989.8 17.4 W 17.4 0.0 11.8
17:05 6.6 4.4 86 989.7 17.4 W 17.4 0.0 11.8
17:06 6.4 4.2 86 989.8 13.6 SW 17.4 0.0 11.8
17:07 6.4 4.2 86 989.8 13.6 SW 17.4 0.0 11.8
17:08 6.4 4.2 86 989.6 13.6 SW 17.4 0.0 11.8
17:09 6.4 4.2 86 989.7 15.2 SW 17.4 0.0 11.8
17:10 6.3 4.1 86 989.8 15.2 W 17.4 0.0 11.8
17:11 6.3 4.1 86 989.7 10.7 SW 17.4 0.0 11.8
17:13 6.3 4.0 85 989.8 13.6 W 17.4 0.0 11.8
17:14 6.2 3.9 85 989.5 13.6 SW 17.4 0.0 11.8
17:15 6.2 3.9 85 989.8 13.0 WSW 17.4 0.0 11.8
17:16 6.2 3.9 85 989.7 10.7 SW 15.2 0.0 11.8
17:17 6.2 3.9 85 989.7 12.1 SW 15.2 0.0 11.8
17:18 6.2 3.9 85 989.7 15.9 SW 18.3 0.0 11.8
17:20 6.1 3.8 85 989.7 12.1 SW 18.3 0.0 11.8
17:21 6.1 3.8 85 989.6 14.5 WSW 18.3 0.0 11.8
17:22 6.1 3.8 85 989.8 14.5 WSW 18.3 0.0 11.8
17:23 6.1 3.6 84 989.7 16.8 SW 18.3 0.0 11.8
17:24 6.1 3.6 84 989.8 15.9 SW 18.3 0.0 11.8
17:25 6.1 3.6 84 989.6 13.6 S 18.3 0.0 11.8
17:26 6.1 3.6 84 989.7 13.6 S 18.3 0.0 11.8
17:27 6.1 3.6 84 989.6 19.7 SW 19.7 0.0 11.8
17:28 6.1 3.6 84 989.5 15.9 NW 19.7 0.0 11.8
17:29 6.1 3.6 84 989.7 18.3 SW 19.7 0.0 11.8
17:30 6.1 3.6 84 989.7 18.3 SW 19.7 0.0 11.8
17:31 6.1 3.6 84 989.8 20.6 WSW 20.6 0.0 11.8
17:32 6.1 3.6 84 989.7 16.8 W 20.6 0.0 11.8
17:33 6.1 3.6 84 989.9 20.6 SW 20.6 0.0 11.8
17:34 6.1 3.6 84 990.0 11.4 SW 20.6 0.0 11.8
17:35 6.0 3.5 84 989.8 13.0 SW 20.6 0.0 11.8
17:36 6.0 3.5 84 989.8 15.9 SW 20.6 0.0 11.8
17:37 6.0 3.5 84 989.8 16.8 SW 20.6 0.0 11.8
17:38 6.0 3.3 83 989.8 12.1 SW 20.6 0.0 11.8
17:40 5.9 3.4 84 989.8 22.8 SW 22.8 0.0 11.8
17:41 5.9 3.4 84 989.8 22.8 W 22.8 0.0 11.8
17:42 5.9 3.4 84 989.8 13.0 SW 22.8 0.0 11.8
17:43 5.9 3.4 84 989.8 15.9 SW 22.8 0.0 11.8
17:44 5.9 3.4 84 989.9 14.5 SW 22.8 0.0 11.8
17:45 5.9 3.4 84 989.8 13.6 SW 22.8 0.0 11.8
17:46 5.9 3.4 84 989.8 15.2 SW 22.8 0.0 11.8
17:47 5.9 3.4 84 989.9 13.6 SW 22.8 0.0 11.8
17:48 5.9 3.4 84 989.8 13.0 S 22.8 0.0 11.8
17:49 5.9 3.6 85 989.9 14.5 SW 22.8 0.0 11.8
17:50 5.9 3.6 85 989.9 15.2 S 22.8 0.0 11.8
17:51 5.8 3.5 85 989.9 13.6 W 17.4 0.0 11.8
17:52 5.8 3.5 85 990.0 13.6 SW 17.4 0.0 11.8
17:53 5.8 3.5 85 989.9 15.2 SW 17.4 0.0 11.8
17:54 5.8 3.5 85 989.8 15.2 SSW 17.4 0.0 11.8
17:55 5.8 3.5 85 989.8 12.1 SW 15.2 0.0 11.8
17:56 5.8 3.6 86 990.2 11.4 SW 15.2 0.0 11.8
17:57 5.8 3.6 86 990.1 13.0 SW 15.2 0.0 11.8
17:59 5.7 3.5 86 990.0 9.8 SW 15.2 0.0 11.8
18:00 5.7 3.5 86 990.0 9.8 SW 15.2 0.0 11.8
18:01 5.7 3.5 86 989.9 10.7 S 15.2 0.0 11.8
18:02 5.7 3.5 86 990.1 19.7 SW 19.7 0.0 11.8
18:03 5.7 3.5 86 989.9 19.7 SSW 19.7 0.0 11.8
18:04 5.7 3.5 86 990.2 17.4 SW 19.7 0.0 11.8
18:05 5.7 3.5 86 990.0 15.9 SW 19.7 0.0 11.8
18:06 5.7 3.5 86 990.2 13.6 NW 19.7 0.0 11.8
18:07 5.7 3.5 86 990.0 14.5 NW 19.7 0.0 11.8
18:08 5.7 3.5 86 990.4 16.8 SW 19.7 0.0 11.8
18:09 5.7 3.5 86 989.9 15.2 S 19.7 0.0 11.8
18:10 5.7 3.5 86 990.1 13.0 SW 19.7 0.0 11.8
18:11 5.7 3.5 86 990.1 16.8 SW 19.7 0.0 11.8
18:12 5.7 3.5 86 990.1 15.9 SW 19.7 0.0 11.8
18:13 5.7 3.5 86 990.0 12.1 SW 17.4 0.0 11.8
18:14 5.7 3.5 86 990.1 15.9 SSW 17.4 0.0 11.8
18:15 5.7 3.5 86 990.0 16.8 SW 16.8 0.0 11.8
18:16 5.8 3.6 86 990.2 16.8 SW 16.8 0.0 11.8
18:18 5.8 3.6 86 990.1 12.1 NW 16.8 0.0 11.8
18:19 5.8 3.6 86 990.1 12.1 NW 16.8 0.0 11.8
18:20 5.8 3.6 86 990.0 14.5 SW 16.8 0.0 11.8
18:21 5.8 3.6 86 990.2 16.8 W 16.8 0.0 11.8
18:22 5.8 3.6 86 990.3 14.5 WSW 16.8 0.0 11.8
18:23 5.9 3.7 86 990.2 13.0 SW 16.8 0.0 11.8
18:24 5.9 3.7 86 990.2 13.6 SW 16.8 0.0 11.8
18:25 5.9 3.7 86 990.1 15.9 SW 16.8 0.0 11.8
18:26 5.9 3.7 86 990.2 17.4 SW 17.4 0.0 11.8
18:27 5.9 3.7 86 989.9 20.6 SW 20.6 0.0 11.8
18:28 5.9 3.7 86 990.0 15.2 SW 20.6 0.0 11.8
18:29 6.0 3.8 86 990.1 13.6 W 20.6 0.0 11.8
18:30 6.0 3.8 86 990.0 20.6 SSW 20.6 0.0 11.8
18:31 6.0 4.0 87 990.1 14.5 SW 20.6 0.0 11.8
18:32 6.0 4.0 87 990.1 12.1 W 20.6 0.0 11.8
18:33 6.0 4.0 87 990.1 12.1 WSW 20.6 0.0 11.8
18:34 6.0 4.0 87 990.0 15.2 WSW 20.6 0.0 11.8
18:36 6.0 4.0 87 990.2 19.0 WSW 21.3 0.0 11.8
18:37 6.0 4.0 87 990.1 17.4 SW 21.3 0.0 11.8
18:38 6.0 4.0 87 990.2 14.5 SSW 21.3 0.0 11.8
18:39 6.0 4.0 87 990.1 16.8 SSW 21.3 0.0 11.8
18:40 6.0 4.0 87 990.2 20.6 SW 21.3 0.0 11.8
18:41 6.0 4.0 87 990.1 13.6 W 21.3 0.0 11.8
18:42 6.0 4.0 87 990.0 13.6 W 21.3 0.0 11.8
18:43 6.0 4.0 87 989.9 14.5 SW 21.3 0.0 11.8
18:44 6.0 4.0 87 990.1 14.5 SW 21.3 0.0 11.8
18:45 6.0 4.0 87 990.0 20.6 SW 21.3 0.0 11.8
18:46 6.0 4.0 87 990.1 18.3 SW 20.6 0.0 11.8
18:47 6.0 4.0 87 990.3 19.7 SW 20.6 0.0 11.8
18:48 6.0 4.0 87 990.0 15.9 W 22.1 0.0 11.8
18:49 6.0 4.0 87 989.9 14.5 WSW 22.1 0.0 11.8
18:50 5.9 3.9 87 990.0 18.3 SW 22.1 0.0 11.8
18:51 5.9 3.9 87 990.0 15.2 SW 22.1 0.0 11.8
18:52 5.9 3.9 87 990.0 12.1 WNW 22.1 0.0 11.8
18:53 5.9 3.9 87 990.1 15.9 SW 22.1 0.0 11.8
18:55 5.9 3.7 86 990.0 13.6 SW 22.1 0.0 11.8
18:56 5.8 3.8 87 989.9 12.1 SW 22.1 0.0 11.8
18:57 5.8 3.8 87 989.9 13.0 WSW 22.1 0.0 11.8
18:58 5.8 3.8 87 989.9 16.8 SW 19.0 0.0 11.8
18:59 5.8 3.8 87 989.8 16.8 SSE 19.0 0.0 11.8
19:00 5.8 3.8 87 989.8 15.2 W 19.0 0.0 11.8
19:01 5.8 3.8 87 990.1 15.2 W 19.0 0.0 11.8
19:02 5.8 3.8 87 990.0 15.2 W 19.0 0.0 11.8
19:03 5.8 3.8 87 990.0 15.2 W 19.0 0.0 11.8
19:04 5.8 3.8 87 990.1 15.2 W 19.0 0.0 11.8
19:05 5.8 3.8 87 990.0 15.2 W 16.8 0.0 11.8
19:06 5.8 3.8 87 990.1 15.2 W 16.8 0.0 11.8
19:07 5.7 3.7 87 990.1 13.0 W 16.8 0.0 11.8
19:08 5.7 3.7 87 990.0 12.1 SW 16.8 0.0 11.8
19:09 5.6 3.8 88 990.1 14.5 W 15.2 0.0 11.8
19:10 5.6 3.8 88 990.1 17.4 SW 17.4 0.0 11.8
19:11 5.6 3.8 88 990.2 15.9 SW 17.4 0.0 11.8
19:12 5.6 3.8 88 990.3 15.2 SW 17.4 0.0 11.8
19:13 5.6 3.8 88 990.1 14.5 SSW 17.4 0.0 11.8
19:14 5.6 3.8 88 990.1 13.0 SW 17.4 0.0 11.8
19:15 5.6 3.8 88 990.3 14.5 SW 17.4 0.0 11.8
19:16 5.6 3.9 89 990.2 14.5 SW 17.4 0.0 11.8
19:17 5.6 3.9 89 990.2 9.2 SW 17.4 0.0 11.8
19:18 5.6 3.9 89 990.4 13.0 SW 17.4 0.0 11.8
19:19 5.6 3.9 89 990.3 13.0 SW 17.4 0.0 11.8
19:21 5.6 3.9 89 990.2 14.5 W 15.9 0.0 11.8
19:22 5.6 3.9 89 990.2 13.0 SW 15.2 0.0 11.8
19:23 5.6 3.9 89 990.2 11.4 SSW 14.5 0.0 11.8
19:24 5.6 3.9 89 990.4 16.8 W 16.8 0.0 11.8
19:25 5.6 3.9 89 990.1 12.1 W 16.8 0.0 11.8
19:26 5.7 4.0 89 990.2 13.0 SW 16.8 0.0 11.8
19:27 5.7 4.0 89 990.2 13.0 SW 16.8 0.0 11.8
19:28 5.7 4.0 89 990.0 9.8 WSW 16.8 0.0 11.8
19:29 5.7 4.0 89 990.0 13.0 SW 16.8 0.0 11.8
19:30 5.7 4.0 89 990.1 13.0 S 16.8 0.0 11.8
19:31 5.7 4.0 89 990.1 18.3 SW 18.3 0.0 11.8
19:32 5.7 4.0 89 990.0 14.5 WSW 18.3 0.0 11.8
19:33 5.7 4.0 89 989.9 13.6 SW 18.3 0.0 11.8
19:34 5.7 4.0 89 990.4 9.2 SW 18.3 0.0 11.8
19:35 5.7 4.0 89 990.2 14.5 SW 18.3 0.0 11.8
19:36 5.7 4.0 89 989.9 13.0 SW 18.3 0.0 11.8
19:37 5.7 4.0 89 990.0 12.1 WSW 18.3 0.0 11.8
19:39 5.7 4.0 89 990.2 10.7 SW 18.3 0.0 11.8
19:40 5.7 4.0 89 990.2 10.7 SW 18.3 0.0 11.8
19:41 5.7 4.0 89 990.1 10.7 WSW 15.2 0.0 11.8
19:42 5.7 4.0 89 990.2 12.1 SW 14.5 0.0 11.8
19:43 5.7 4.0 89 990.0 12.1 SW 14.5 0.0 11.8
19:44 5.7 4.0 89 990.0 16.8 SW 16.8 0.0 11.8
19:45 5.7 4.0 89 990.1 19.0 SW 19.0 0.0 11.8
19:46 5.7 4.0 89 990.1 18.3 W 19.0 0.0 11.8
19:47 5.8 4.1 89 990.2 18.3 SW 19.0 0.0 11.8
19:48 5.8 4.1 89 990.1 14.5 W 19.0 0.0 11.8
19:49 5.8 4.1 89 990.0 12.1 SW 19.0 0.0 11.8
19:50 5.8 4.1 89 989.9 13.6 W 19.0 0.0 11.8
19:51 5.8 4.1 89 990.2 15.2 SW 19.0 0.0 11.8
19:52 5.8 4.1 89 990.1 15.2 SW 19.0 0.0 11.8
19:53 5.8 4.1 89 990.3 15.2 SW 19.0 0.0 11.8
19:54 5.8 4.1 89 990.2 16.8 SW 19.0 0.0 11.8
19:55 5.8 4.1 89 990.0 14.5 S 18.3 0.0 11.8
19:56 5.9 4.2 89 990.3 20.6 WSW 20.6 0.0 11.8
19:58 5.9 4.2 89 990.0 16.8 SW 20.6 0.0 11.8
19:59 5.9 4.2 89 990.1 16.8 SSW 20.6 0.0 11.8
20:00 5.9 4.2 89 990.1 16.8 SSW 20.6 0.0 11.8
20:01 5.9 4.2 89 990.1 13.6 SW 20.6 0.0 11.8
20:02 6.0 4.3 89 990.0 15.9 W 20.6 0.0 11.8
20:03 6.0 4.3 89 990.1 17.4 SW 20.6 0.0 11.8
20:04 6.0 4.3 89 990.1 17.4 SW 20.6 0.0 11.8
20:05 6.0 4.3 89 990.2 23.5 S 23.5 0.0 11.8
20:06 6.0 4.3 89 990.1 23.5 S 23.5 0.0 11.8
20:07 6.0 4.3 89 990.2 19.7 SW 23.5 0.0 11.8
20:08 6.0 4.3 89 989.7 19.7 SW 23.5 0.0 11.8
20:09 6.0 4.3 89 990.2 15.9 SW 23.5 0.0 11.8
20:10 6.0 4.3 89 990.1 15.9 SW 23.5 0.0 11.8
20:11 6.0 4.3 89 989.9 14.5 W 23.5 0.0 11.8
20:12 6.0 4.3 89 989.8 13.6 W 23.5 0.0 11.8
20:13 6.0 4.3 89 990.0 13.6 WSW 23.5 0.0 11.8
20:14 6.0 4.3 89 989.9 19.0 WSW 23.5 0.0 11.8
20:15 6.0 4.3 89 990.1 17.4 S 23.5 0.0 11.8
20:17 6.0 4.3 89 990.2 16.8 SW 19.7 0.0 11.8
20:18 6.0 4.2 88 989.9 18.3 SW 19.0 0.0 11.8
20:19 6.0 4.2 88 989.9 18.3 SW 19.0 0.0 11.8
20:20 5.9 4.1 88 989.8 18.3 S 19.0 0.0 11.8
20:21 5.9 4.1 88 990.0 19.0 SW 19.0 0.0 11.8
20:22 5.9 4.1 88 990.0 15.2 SSW 19.0 0.0 11.8
20:23 5.9 4.1 88 990.0 12.1 SW 19.0 0.0 11.8
20:24 5.9 4.1 88 990.0 11.4 SW 19.0 0.0 11.8
20:25 5.9 4.1 88 990.1 16.8 SSW 19.0 0.0 11.8
20:26 5.9 4.1 88 989.9 19.7 SW 19.7 0.0 11.8
20:27 5.8 3.8 87 989.7 17.4 WSW 19.7 0.0 11.8
20:28 5.8 3.8 87 990.1 15.2 SW 19.7 0.0 11.8
20:29 5.8 3.8 87 989.9 14.5 SW 19.7 0.0 11.8
20:30 5.8 3.8 87 989.8 19.7 SW 19.7 0.0 11.8
20:31 5.8 3.8 87 989.7 13.6 SW 19.7 0.0 11.8
20:32 5.8 3.8 87 989.9 13.6 WSW 19.7 0.0 11.8
20:33 5.8 3.8 87 990.0 14.5 SSW 19.7 0.0 11.8
20:34 5.7 3.7 87 989.9 19.0 S 19.7 0.0 11.8
20:35 5.7 3.7 87 990.0 15.9 S 19.7 0.0 11.8
20:37 5.7 3.7 87 989.9 14.5 SW 19.7 0.0 11.8
20:38 5.7 3.7 87 990.1 15.2 SW 19.7 0.0 11.8
20:39 5.7 3.7 87 990.0 15.9 S 19.7 0.0 11.8
20:40 5.7 3.7 87 990.0 15.9 W 19.7 0.0 11.8
20:41 5.7 3.7 87 989.9 13.0 SW 19.0 0.0 11.8
20:42 5.7 3.7 87 990.1 17.4 S 19.0 0.0 11.8
20:43 5.7 3.7 87 989.9 17.4 SSW 19.0 0.0 11.8
20:44 5.8 3.8 87 989.9 22.8 SW 22.8 0.0 11.8
20:45 5.8 4.0 88 990.1 15.2 SW 22.8 0.0 11.8
20:46 5.8 4.0 88 989.9 15.2 W 22.8 0.0 11.8
20:47 5.9 4.1 88 990.0 19.0 SSW 22.8 0.0 11.8
20:48 5.9 4.1 88 990.0 18.3 SW 22.8 0.0 11.8
20:49 5.9 4.1 88 990.1 18.3 S 22.8 0.0 11.8
20:50 6.0 4.2 88 990.0 19.0 SW 22.8 0.0 11.8
20:51 6.0 4.2 88 989.9 19.0 SW 22.8 0.0 11.8
20:52 6.1 4.3 88 989.9 17.4 SW 22.8 0.0 11.8
20:53 6.1 4.4 89 989.9 15.2 SW 22.8 0.0 11.8
20:54 6.1 4.4 89 989.9 21.3 SW 21.3 0.0 11.8
20:55 6.1 4.4 89 989.8 21.3 SW 21.3 0.0 11.8
20:57 6.2 4.5 89 989.9 14.5 S 21.3 0.0 11.8
20:58 6.2 4.5 89 989.6 19.7 SW 21.3 0.0 11.8
20:59 6.2 4.5 89 989.6 19.7 SW 21.3 0.0 11.8
21:00 6.2 4.5 89 989.7 17.4 S 21.3 0.0 11.8
21:01 6.2 4.5 89 989.7 17.4 S 21.3 0.0 11.8
21:02 6.2 4.5 89 989.8 17.4 S 21.3 0.0 11.8
21:03 6.2 4.5 89 989.9 17.4 S 21.3 0.0 11.8
21:04 6.2 4.5 89 990.0 17.4 S 21.3 0.0 11.8
21:05 6.2 4.5 89 989.9 17.4 S 21.3 0.0 11.8
21:06 6.2 4.5 89 989.7 17.4 S 19.7 0.0 11.8
21:07 6.2 4.5 89 989.7 17.4 S 19.7 0.0 11.8
21:08 6.2 4.5 89 989.8 17.4 S 19.7 0.0 11.8
21:09 6.2 4.5 89 990.0 17.4 S 17.4 0.0 11.8
21:10 6.3 4.6 89 989.6 17.4 WSW 17.4 0.0 11.8
21:11 6.3 4.6 89 989.8 20.6 SW 20.6 0.0 11.8
21:12 6.3 4.6 89 989.6 20.6 WSW 20.6 0.0 11.8
21:13 6.3 4.6 89 989.5 19.0 W 20.6 0.0 11.8
21:14 6.4 4.7 89 989.3 15.2 SW 20.6 0.0 11.8
21:15 6.4 4.7 89 989.6 15.2 S 20.6 0.0 11.8
21:16 6.4 4.6 88 989.3 18.3 SW 20.6 0.0 11.8
21:17 6.4 4.6 88 989.3 18.3 SW 20.6 0.0 11.8
21:18 6.3 4.5 88 989.4 17.4 SW 20.6 0.0 11.8
21:19 6.3 4.5 88 989.3 17.4 SW 20.6 0.0 11.8
21:20 6.3 4.5 88 989.3 17.4 SW 20.6 0.0 11.8
21:21 6.3 4.5 88 989.3 17.4 SW 20.6 0.0 11.8
21:23 6.4 4.6 88 989.3 17.4 S 19.0 0.0 11.8
21:24 6.4 4.6 88 989.3 17.4 S 19.0 0.0 11.8
21:25 6.4 4.6 88 989.6 19.0 SSW 20.6 0.0 11.8
21:26 6.4 4.6 88 989.3 19.0 SW 20.6 0.0 11.8
21:27 6.5 4.7 88 989.2 15.2 SW 20.6 0.0 11.8
21:28 6.5 4.7 88 989.2 20.6 S 20.6 0.0 11.8
21:29 6.5 4.7 88 989.5 22.8 SW 26.6 0.0 11.8
21:30 6.5 4.7 88 989.2 22.8 SW 26.6 0.0 11.8
21:31 6.6 4.9 89 989.5 19.0 SW 26.6 0.0 11.8
21:32 6.6 4.9 89 989.2 24.4 SW 26.6 0.0 11.8
21:33 6.6 4.9 89 989.2 24.4 SW 26.6 0.0 11.8
21:34 6.6 4.9 89 989.4 20.6 SW 26.6 0.0 11.8
21:35 6.6 4.9 89 989.1 20.6 SW 26.6 0.0 11.8
21:36 6.6 4.9 89 989.3 16.8 WSW 26.6 0.0 11.8
21:37 6.6 4.9 89 989.0 19.0 SW 26.6 0.0 11.8
21:38 6.6 4.9 89 989.2 15.9 SSW 26.6 0.0 11.8
21:39 6.6 4.9 89 989.5 22.1 SW 24.4 0.0 11.8
21:40 6.6 4.9 89 989.1 22.1 SW 24.4 0.0 11.8
21:42 6.6 4.9 89 989.2 19.0 SSW 24.4 0.0 11.8
21:43 6.6 4.9 89 989.2 19.0 SSW 24.4 0.0 11.8
21:44 6.6 4.9 89 989.4 22.1 W 22.1 0.0 11.8
21:45 6.6 4.9 89 989.1 20.6 W 22.1 0.0 11.8
21:46 6.6 4.9 89 989.1 20.6 W 22.1 0.0 11.8
21:47 6.6 4.9 89 989.0 15.9 SW 22.1 0.0 11.8
21:48 6.6 4.9 89 989.1 15.9 SW 22.1 0.0 11.8
21:49 6.6 4.9 89 988.9 18.3 SW 22.1 0.0 11.8
21:50 6.6 4.9 89 988.8 19.7 SW 22.1 0.0 11.8
21:51 6.7 5.0 89 989.2 22.8 SW 22.8 0.0 11.8
21:52 6.7 5.0 89 989.1 23.5 SW 23.5 0.0 11.8
21:53 6.7 5.0 89 989.1 23.5 SW 23.5 0.0 11.8
21:54 6.7 5.0 89 988.9 23.5 SW 23.5 0.0 11.8
21:55 6.7 5.0 89 988.9 18.3 S 23.5 0.0 11.8
21:56 6.7 5.0 89 988.9 24.4 W 24.4 0.0 11.9
21:57 6.7 5.0 89 989.1 24.4 W 24.4 0.8 11.9
21:58 6.6 4.9 89 988.9 17.4 SW 24.4 0.8 11.9
21:59 6.6 4.9 89 988.7 17.4 SW 24.4 0.8 11.9
22:01 6.6 4.9 89 988.9 13.6 SW 24.4 1.5 12.0
22:02 6.5 4.8 89 988.9 17.4 SW 24.4 0.8 12.0
22:03 6.5 4.8 89 988.9 16.8 WSW 24.4 0.8 12.0
22:04 6.5 4.8 89 988.9 11.4 SW 24.4 0.8 12.0
22:05 6.5 4.8 89 989.3 19.7 WSW 24.4 0.8 12.0
22:06 6.5 4.8 89 989.3 15.9 SW 24.4 0.0 12.0
22:07 6.4 4.7 89 989.2 16.8 SW 24.4 0.0 12.0
22:08 6.4 4.7 89 989.3 17.4 SW 19.7 0.0 12.0
22:09 6.4 4.7 89 989.1 11.4 W 19.7 0.0 12.0
22:10 6.4 4.7 89 989.1 11.4 W 19.7 0.0 12.0
22:11 6.4 4.7 89 989.4 19.0 S 19.7 0.0 12.0
22:12 6.4 4.7 89 989.2 18.3 SW 19.7 0.0 12.0
22:13 6.4 4.9 90 989.2 23.5 WNW 23.5 0.0 12.0
22:14 6.4 4.9 90 989.3 15.2 W 23.5 0.0 12.0
22:15 6.4 4.9 90 989.3 15.2 W 23.5 0.0 12.0
22:16 6.4 4.9 90 989.5 20.6 WSW 23.5 0.0 12.0
22:17 6.4 4.9 90 989.5 17.4 SW 23.5 0.0 12.0
22:18 6.4 4.9 90 989.6 13.6 SW 23.5 0.8 12.2
22:20 6.4 4.9 90 989.5 14.5 W 23.5 3.0 12.2
22:21 6.4 4.9 90 989.6 20.6 WNW 23.5 3.0 12.3
22:22 6.4 4.9 90 989.4 20.6 W 23.5 3.8 12.3
22:23 6.3 4.8 90 989.3 13.6 SW 23.5 3.8 12.3
22:24 6.3 4.8 90 989.5 13.6 WSW 23.5 1.5 12.3
22:25 6.3 4.8 90 989.5 13.6 WSW 20.6 1.5 12.3
22:26 6.2 4.7 90 989.4 18.3 SW 20.6 2.3 12.4
22:27 6.2 4.7 90 989.4 13.6 SSW 20.6 2.3 12.5
22:28 6.1 4.6 90 989.2 15.9 W 20.6 1.5 12.5
22:29 5.9 4.4 90 989.4 14.5 SW 20.6 1.5 12.5
22:30 5.9 4.4 90 989.3 8.3 W 20.6 1.5 12.5
22:31 5.8 4.3 90 989.4 15.9 WSW 20.6 0.8 12.5
22:32 5.8 4.1 89 989.3 15.2 WSW 20.6 0.8 12.5
22:33 5.7 4.0 89 989.5 13.6 W 18.3 0.8 12.5
22:34 5.6 3.9 89 989.5 12.1 W 18.3 0.8 12.6
22:35 5.6 3.9 89 989.6 9.2 SW 18.3 1.5 12.7
22:36 5.6 3.9 89 989.5 10.7 WSW 15.9 2.3 12.7
22:37 5.5 3.8 89 989.3 15.9 W 15.9 2.3 12.7
22:38 5.5 3.8 89 989.3 15.2 SW 15.9 2.3 12.7
22:39 5.5 3.8 89 989.4 12.1 W 15.9 2.3 12.7
22:41 5.5 3.8 89 989.4 13.6 SW 15.9 0.8 12.7
22:42 5.5 4.0 90 989.5 12.1 W 15.9 0.0 12.7
22:43 5.5 4.0 90 989.5 12.1 W 15.9 0.0 12.7
22:44 5.5 4.0 90 989.4 13.0 W 15.9 0.0 12.7
22:45 5.5 4.0 90 989.3 13.6 SW 16.8 0.0 12.7
22:46 5.5 4.0 90 989.1 13.6 SW 16.8 0.0 12.7
22:47 5.5 4.0 90 989.3 18.3 SW 18.3 0.0 12.7
22:48 5.5 4.0 90 989.2 18.3 SW 18.3 0.0 12.7
22:49 5.6 4.1 90 989.3 13.0 S 18.3 0.0 12.7
22:50 5.6 4.1 90 989.2 13.6 WSW 18.3 0.0 12.7
22:51 5.6 4.1 90 989.2 13.6 WSW 18.3 0.0 12.7
22:52 5.7 4.2 90 989.2 13.0 W 18.3 0.0 12.7
22:53 5.7 4.2 90 989.5 13.0 W 18.3 0.0 12.7
22:54 5.7 4.3 91 989.3 13.6 SW 18.3 0.0 12.7
22:55 5.8 4.4 91 989.4 15.9 W 18.3 0.0 12.8
22:56 5.8 4.4 91 989.6 15.9 SW 18.3 0.8 12.8
22:57 5.8 4.4 91 989.3 15.9 SW 18.3 0.8 12.8
22:58 5.9 4.5 91 989.5 17.4 SSW 19.7 0.8 12.8
23:00 5.9 4.5 91 989.3 21.3 SW 21.3 0.8 12.8
23:01 5.9 4.5 91 989.4 21.3 SW 21.3 0.0 12.8
23:02 5.9 4.5 91 989.3 21.3 SW 21.3 0.0 12.8
23:03 5.9 4.5 91 989.4 21.3 SW 21.3 0.0 12.8
23:04 5.9 4.5 91 989.4 21.3 SW 21.3 0.0 12.8
23:05 5.9 4.5 91 989.3 21.3 SW 21.3 0.0 12.8
23:06 5.9 4.5 91 989.3 21.3 SW 21.3 0.0 12.8
23:07 5.8 4.4 91 989.6 12.1 SW 21.3 0.0 12.8
23:08 5.8 4.4 91 989.4 13.0 SW 21.3 0.0 12.8
23:09 5.8 4.4 91 989.3 13.0 WSW 21.3 0.0 12.8
23:10 5.8 4.4 91 989.4 15.2 SW 21.3 0.0 12.8
23:11 5.8 4.4 91 989.3 16.8 WSW 21.3 0.0 12.8
23:12 5.8 4.6 92 989.3 13.0 SW 21.3 0.0 12.8
23:13 5.8 4.6 92 989.2 14.5 W 21.3 0.0 12.8
23:14 5.8 4.6 92 989.3 15.2 SW 21.3 0.0 12.8
23:15 5.8 4.6 92 989.2 10.7 SW 21.3 0.0 12.8
23:17 5.8 4.6 92 989.2 11.4 SSW 16.8 0.0 12.8
23:18 5.8 4.6 92 989.4 9.8 W 16.8 0.0 12.8
23:19 5.8 4.6 92 989.4 8.3 SW 16.8 0.0 12.8
23:20 5.8 4.6 92 989.3 11.4 SW 16.8 0.0 12.8
23:21 5.8 4.6 92 989.4 13.6 SW 16.8 0.0 12.8
23:22 5.8 4.6 92 989.3 11.4 SW 15.2 0.0 12.8
23:23 5.8 4.6 92 989.2 9.8 WSW 15.2 0.0 12.8
23:24 5.9 4.7 92 989.6 14.5 SW 15.2 0.0 12.8
23:26 5.9 4.7 92 989.5 13.0 W 14.5 0.0 12.8
23:27 5.9 4.7 92 989.6 15.9 N 15.9 0.0 12.8
23:28 5.9 4.7 92 989.6 15.9 N 15.9 0.0 12.8
23:29 5.9 4.7 92 989.4 15.9 WSW 15.9 0.0 12.8
23:30 6.0 4.8 92 989.5 13.6 W 15.9 0.0 12.8
23:31 6.0 4.8 92 989.5 17.4 SSW 17.4 0.0 12.8
23:32 6.0 4.8 92 989.5 15.2 SW 17.4 0.0 12.8
23:33 6.0 4.8 92 989.7 12.1 SW 17.4 0.0 12.8
23:34 6.0 4.8 92 989.5 12.1 W 17.4 0.0 12.8
23:35 6.0 4.8 92 989.5 12.1 WSW 17.4 0.0 12.8
23:36 6.1 4.9 92 989.4 10.7 SW 17.4 0.0 12.8
23:37 6.1 4.9 92 989.5 11.4 SW 17.4 0.0 12.8
23:38 6.1 4.9 92 989.2 17.4 WSW 17.4 0.0 12.8
23:39 6.1 5.1 93 989.4 12.1 SW 17.4 0.0 12.8
23:40 6.1 5.1 93 989.4 10.7 SW 17.4 0.0 12.8
23:41 6.1 5.1 93 989.6 10.7 SW 17.4 0.0 12.8
23:42 6.1 4.9 92 989.5 13.6 SW 17.4 0.0 12.8
23:43 6.1 4.9 92 989.4 12.1 SW 17.4 0.0 12.9
23:45 6.2 5.0 92 989.7 10.7 SW 17.4 0.8 12.9
23:46 6.2 5.0 92 989.5 13.0 SW 17.4 0.8 12.9
23:47 6.2 5.0 92 989.5 13.0 SW 17.4 0.8 12.9
23:48 6.2 5.0 92 989.5 13.0 WSW 17.4 0.8 12.9
23:49 6.2 5.0 92 989.6 12.1 SSW 13.6 0.0 12.9
23:50 6.2 5.0 92 989.4 15.2 WSW 15.2 0.0 12.9
23:51 6.2 5.0 92 989.3 11.4 WSW 15.2 0.0 12.9
23:52 6.2 5.0 92 989.5 15.9 SW 15.9 0.0 12.9
23:53 6.2 5.0 92 989.8 17.4 SW 17.4 0.0 12.9
23:54 6.2 5.0 92 989.6 13.6 SW 17.4 0.0 12.9
23:55 6.2 5.0 92 989.6 15.9 NW 17.4 0.0 12.9
23:56 6.2 5.0 92 989.6 15.9 NW 17.4 0.0 12.9
23:57 6.1 4.9 92 989.7 15.9 SW 17.4 0.0 12.9
23:58 6.1 4.9 92 989.8 19.0 S 19.0 0.0 12.9
23:59 6.0 4.8 92 989.7 14.5 W 19.0 0.0 12.9

 

 

UK - WEATHER STATION TOPSITES - UK

Copyright © Carnkie Weather 2009 - 2024.